GFSFLT1_925_spd_003.txt.gz
Wind_Speed
29 25 18 22 18 22 28 27 21 21 16 13 11 13 13 12 10 10 10 9 10 12 17 21 16 19 19 18 21 23 26 28
30 37 33 37 29 27 24 21 11 17 14 13 11 9 8 8 9 5 6 10 11 13 24 15 10 11 15 18 22 26 29 29
24 34 35 33 31 28 26 24 24 20 16 15 11 7 4 3 6 6 9 12 19 17 13 11 13 14 16 17 18 21 21 25
14 23 29 29 28 25 22 19 17 15 9 5 2 2 4 8 11 14 19 13 12 11 12 13 14 13 14 16 19 23 25 25
14 19 22 23 21 18 16 12 10 7 7 6 8 9 10 13 15 11 11 11 12 14 15 17 18 17 16 16 18 19 19 14
9 18 17 14 12 12 10 7 8 9 10 4 2 6 8 4 10 5 7 13 18 17 18 22 22 19 18 19 17 16 16 12
16 20 14 8 5 4 5 6 4 9 11 6 6 8 5 3 3 5 11 17 16 19 20 17 16 14 14 11 12 12 12 11
9 14 15 9 4 3 2 2 6 6 4 9 5 4 6 6 8 12 16 14 16 16 12 13 15 15 14 13 12 10 10 11
7 9 7 5 4 8 4 6 8 7 7 8 11 12 10 10 14 17 13 15 7 10 15 14 12 14 13 16 18 20 21 22
6 9 8 18 14 13 12 8 6 11 11 9 8 11 12 18 17 14 12 9 12 13 15 16 18 19 20 22 25 26 24 19
9 19 17 17 22 22 20 19 18 14 12 11 13 12 14 11 8 8 10 14 18 17 18 19 20 21 20 21 21 20 20 20
7 12 15 18 20 20 20 19 17 14 14 16 13 13 8 3 4 5 8 12 17 16 16 18 19 18 17 18 19 21 21 22
9 16 19 19 19 25 22 20 13 10 16 13 13 13 9 10 8 5 6 7 8 8 13 16 17 17 19 18 15 10 9 14
10 17 17 18 20 21 19 23 18 25 21 16 13 13 12 15 6 4 3 5 8 10 10 11 14 16 15 14 10 12 15 17
7 11 15 17 16 18 22 25 27 31 28 16 18 20 20 5 2 4 8 10 12 10 8 14 18 17 15 12 11 12 15 19
7 6 13 14 17 20 23 24 28 30 32 31 29 25 8 4 1 2 11 13 9 8 14 15 16 12 13 12 11 14 19 23
7 10 11 12 16 19 21 24 27 30 31 32 35 15 5 7 11 15 13 4 8 13 15 16 14 10 12 10 14 21 23 20
6 10 10 13 16 18 21 22 25 28 31 30 22 14 13 9 7 20 8 9 11 17 17 8 7 9 9 17 21 19 18 18
9 9 13 12 13 18 19 21 24 26 24 26 22 17 13 9 9 11 7 11 15 14 4 8 7 13 17 16 15 16 15 18

GFSFLT1_925_spd_009.txt.gz
Wind_Speed
12 14 12 19 20 17 19 11 8 8 7 13 16 16 13 9 8 6 3 2 5 9 12 11 9 10 13 16 18 18 19 21
20 22 17 17 14 12 9 10 12 14 15 15 12 11 9 8 5 5 6 9 10 9 9 9 12 14 15 18 20 23 23 25
19 28 27 23 22 18 13 15 16 14 11 10 6 4 4 5 5 6 7 8 9 10 10 11 12 14 16 18 20 20 18 20
7 19 24 22 18 16 16 14 12 8 4 2 3 3 2 3 3 4 6 7 9 11 13 14 11 10 11 13 13 14 13 15
9 16 20 21 18 14 12 9 7 6 5 4 5 7 6 3 1 4 6 8 11 12 13 11 9 10 14 16 13 13 12 13
8 17 19 16 14 11 8 5 2 2 3 6 7 5 3 3 6 8 13 12 10 10 15 13 11 8 12 14 11 9 10 10
11 16 13 10 5 4 4 4 5 4 5 6 7 4 2 7 8 13 18 17 21 29 24 5 3 9 12 10 10 12 14 11
7 9 12 11 8 4 4 4 8 7 7 8 10 11 6 2 10 17 25 28 24 17 8 4 6 8 8 9 9 10 9 11
7 15 20 20 20 17 15 14 14 13 13 11 9 13 15 17 18 21 21 22 18 11 4 5 12 8 7 8 8 9 9 10
10 19 19 16 14 13 12 12 11 12 13 14 15 17 17 19 19 22 19 12 8 7 2 11 8 10 9 9 8 9 10 11
8 14 13 13 13 13 12 12 13 13 12 13 15 17 18 21 22 23 15 11 10 7 12 14 6 13 11 10 12 11 14 16
7 11 12 11 12 14 15 13 11 11 13 15 16 17 19 21 23 20 16 12 6 6 5 8 14 11 9 13 14 17 17 14
9 10 10 12 13 13 12 10 10 12 14 17 19 20 21 23 23 16 8 9 5 7 9 16 16 14 12 14 16 15 10 11
5 6 10 12 9 9 8 7 8 11 16 19 21 22 23 23 21 16 18 15 17 22 24 22 18 14 14 16 15 12 13 10
4 5 11 10 8 7 4 3 7 12 15 18 19 19 19 19 18 14 18 22 21 18 18 17 14 15 15 16 13 11 11 17
5 4 9 6 7 5 1 3 8 11 13 14 16 16 17 17 19 20 22 19 16 18 13 10 17 14 14 11 10 11 17 19
3 1 7 7 9 7 5 6 7 8 9 13 14 17 18 18 18 18 16 18 19 9 15 15 16 8 6 7 12 16 18 18
4 6 11 11 14 11 9 8 8 9 11 13 15 16 17 18 18 15 14 13 8 14 16 11 3 3 7 10 13 15 17 19
7 12 12 15 14 10 9 11 11 10 13 14 15 18 20 19 18 16 17 15 11 18 8 3 2 7 9 9 11 14 15 17

GFSFLT1_925_spd_012.txt.gz
Wind_Speed
8 4 7 12 18 21 19 18 12 8 4 12 16 12 10 7 5 4 5 7 9 10 11 9 8 8 9 11 12 13 15 17
11 17 19 23 22 20 16 14 11 15 19 14 10 8 5 4 3 3 3 5 7 8 6 7 8 11 11 11 14 16 17 19
14 19 26 27 23 17 16 17 19 16 12 6 4 6 6 4 3 4 4 5 6 6 8 11 13 12 11 11 13 15 11 12
8 17 21 24 24 24 22 19 16 10 6 7 5 3 3 2 1 4 6 6 7 8 10 14 14 11 8 8 12 15 8 7
7 15 18 20 19 18 17 14 11 9 5 3 1 3 2 1 2 5 4 8 12 13 19 22 16 10 5 8 8 11 9 8
12 12 13 14 13 12 9 8 6 3 2 3 4 2 2 4 5 3 9 19 22 17 17 21 11 2 6 7 7 10 11 9
11 12 10 7 9 8 7 5 6 7 6 9 10 7 5 2 6 11 14 21 21 25 18 7 1 6 10 11 15 12 9 9
4 6 14 10 9 9 10 13 19 18 18 17 15 12 10 12 16 18 18 23 22 23 10 2 5 9 10 12 13 11 8 6
5 9 17 21 20 19 18 17 16 14 13 11 9 10 11 14 18 20 23 26 23 17 10 9 5 11 9 9 10 10 9 10
7 11 16 17 17 16 16 14 11 9 10 11 12 12 14 16 19 22 24 25 23 10 11 6 16 5 9 12 11 13 12 13
7 13 15 16 17 17 15 11 10 10 10 12 13 15 17 18 20 22 22 20 11 10 8 12 6 7 11 16 14 12 14 16
6 11 13 15 18 16 12 9 6 6 8 11 13 14 15 17 20 20 19 17 14 14 14 14 10 13 16 17 16 15 16 16
8 11 13 13 14 12 10 5 3 4 7 10 11 12 14 17 19 19 18 15 15 18 15 11 15 19 15 16 17 17 17 14
6 8 12 13 11 8 5 4 2 3 6 8 9 12 15 17 19 19 18 18 16 14 14 18 16 12 11 14 16 16 13 13
5 6 11 9 8 9 11 8 5 5 7 8 11 13 15 18 20 20 20 20 19 19 16 17 9 7 13 15 14 11 12 14
6 5 10 11 12 15 12 9 8 8 9 10 12 14 16 19 21 21 21 20 18 18 16 8 9 11 17 9 7 10 14 18
6 8 14 18 18 17 13 11 10 11 12 13 15 16 17 20 23 22 20 18 17 18 8 13 13 12 3 4 9 14 17 20
7 8 14 20 18 15 13 10 13 14 13 15 18 18 18 22 23 22 21 19 17 12 12 13 4 1 5 8 12 15 17 18
7 10 11 13 12 11 10 13 15 15 15 18 19 18 19 24 24 23 24 20 17 14 11 3 0 3 7 11 14 14 17 19

GFSFLT1_925_spd_015.txt.gz
Wind_Speed
5 7 8 10 13 16 19 18 12 8 6 6 9 10 8 7 7 5 3 2 3 4 3 4 5 6 6 7 7 6 6 10
7 11 14 18 19 19 19 15 12 10 18 17 13 8 6 6 4 2 1 2 3 4 5 7 9 11 11 12 12 10 8 12
9 12 14 15 17 16 15 15 18 20 18 14 7 8 6 6 3 2 1 3 5 8 9 12 14 12 11 9 6 7 7 8
12 15 17 14 14 17 19 20 19 15 9 8 7 7 7 3 1 1 4 9 15 16 16 14 15 12 6 3 6 8 10 8
14 14 14 19 16 18 17 17 13 10 7 4 4 3 2 2 2 4 6 10 12 12 14 13 15 6 1 3 5 7 8 10
12 16 18 20 22 19 16 12 11 8 8 9 10 10 9 6 5 6 9 12 15 16 16 17 13 4 1 2 3 5 6 6
10 10 13 16 14 16 18 19 21 20 19 18 17 15 11 8 8 11 12 17 20 21 19 15 6 4 1 1 4 6 7 4
6 8 8 8 13 16 20 20 20 18 16 14 12 10 8 9 12 13 18 18 19 18 20 11 9 5 2 5 7 5 4 5
7 7 9 11 15 19 18 17 17 15 14 13 11 10 9 10 14 17 18 19 20 22 16 13 9 3 7 12 8 6 7 8
9 11 12 13 14 17 17 15 16 15 13 9 8 8 9 11 15 19 21 23 23 19 12 14 11 10 9 10 10 10 10 10
10 12 11 11 14 16 14 15 15 12 9 7 7 8 11 14 19 21 22 21 20 13 12 13 12 13 8 11 13 12 13 13
11 11 11 11 14 13 14 12 9 6 5 5 7 9 11 15 18 20 20 20 19 15 13 13 12 10 12 18 14 14 15 14
13 13 13 13 12 14 12 6 3 2 0 3 6 8 11 13 16 18 19 19 17 15 15 14 11 15 20 17 10 12 13 13
12 13 14 14 14 11 7 3 7 6 3 4 6 8 11 13 15 18 20 19 17 16 13 15 19 16 15 9 10 12 10 8
11 10 13 12 11 9 4 11 12 7 5 7 8 9 12 14 17 19 19 19 17 14 15 15 13 8 9 9 9 7 6 8
10 9 13 13 14 15 13 13 10 8 8 11 11 12 13 15 18 22 20 19 16 14 15 13 9 10 10 5 3 5 8 12
11 12 15 18 19 14 12 12 9 8 11 13 13 14 15 17 19 23 21 18 16 14 10 9 12 8 3 3 6 7 10 13
12 13 15 17 14 13 12 10 7 9 13 14 14 17 17 17 19 20 19 17 16 12 10 10 4 1 2 6 9 8 11 13
11 13 13 9 9 9 8 6 7 12 13 13 17 18 17 16 18 17 17 16 12 8 8 3 3 1 5 8 12 10 11 12

GFSFLT1_925_spd_018.txt.gz
Wind_Speed
6 5 7 10 12 14 15 16 14 12 10 9 7 7 7 6 5 4 5 4 4 4 4 4 5 7 8 10 11 13 14 15
8 8 10 12 14 16 16 16 17 14 12 13 12 9 6 5 5 6 5 5 5 5 5 6 8 10 11 12 14 17 17 14
11 12 12 13 14 13 14 14 13 13 12 9 7 8 6 6 5 5 5 5 6 6 7 8 10 13 15 13 11 12 13 10
11 14 14 14 14 14 16 16 16 11 8 7 7 7 6 4 2 3 3 4 6 7 8 10 12 14 15 10 7 7 11 11
14 15 15 16 16 16 16 15 11 8 6 7 5 4 4 4 3 3 3 5 8 10 11 12 13 13 11 9 7 7 8 12
13 15 17 15 15 15 13 13 12 10 10 10 9 9 8 5 3 6 8 10 12 14 15 15 15 13 9 7 6 6 10 15
15 16 15 14 12 12 12 13 14 13 13 13 13 10 7 6 8 10 12 16 17 18 17 17 15 12 9 7 5 10 14 12
14 16 16 15 13 13 15 15 15 12 13 12 11 10 8 7 10 12 15 17 18 19 19 17 15 12 9 6 8 12 10 9
14 16 15 15 16 14 14 14 14 11 10 10 9 9 7 7 9 12 14 16 18 19 18 16 13 11 8 9 12 10 10 10
14 15 15 17 18 16 14 14 13 11 10 8 5 7 6 6 9 12 14 16 17 17 16 13 11 12 11 12 13 13 13 12
13 15 16 17 17 15 14 14 13 10 7 5 3 3 4 6 9 13 14 16 17 17 16 14 15 16 16 15 17 16 15 14
14 16 17 17 17 15 15 13 9 8 9 7 5 2 2 6 9 13 14 16 17 17 16 16 16 16 17 19 20 19 16 15
15 18 19 19 18 17 15 12 11 8 7 6 3 1 4 7 10 13 14 16 17 17 16 16 16 18 21 22 18 13 13 15
15 19 20 20 19 17 16 11 5 8 9 6 4 5 6 9 11 14 15 17 17 17 16 16 16 17 18 15 10 11 13 13
16 17 20 20 18 18 15 6 9 10 9 7 7 8 9 10 12 14 16 17 17 17 16 16 16 14 11 10 10 11 10 8
18 17 19 20 19 19 9 11 11 11 9 9 9 9 10 12 14 15 17 18 17 17 16 15 11 10 9 10 10 9 9 12
18 17 20 20 21 20 12 11 12 10 9 10 10 10 12 14 15 15 16 18 17 16 15 15 12 8 8 6 5 9 12 14
18 18 19 19 19 15 12 12 10 9 9 9 10 10 13 15 15 15 17 17 15 13 13 11 9 5 5 5 7 9 12 13
16 18 16 16 13 10 10 9 9 8 7 7 9 12 14 15 15 15 17 15 12 12 11 7 5 5 6 6 9 9 12 11

GFSFLT1_925_spd_021.txt.gz
Wind_Speed
12 9 9 12 14 16 15 16 17 14 12 10 5 4 7 7 5 5 5 3 2 1 1 3 6 8 11 13 15 17 19 22
10 9 9 10 12 14 15 15 14 13 11 11 10 11 10 8 7 6 4 3 3 3 3 6 8 10 13 15 18 19 21 20
10 11 12 12 13 14 16 13 14 12 12 13 12 11 9 9 7 5 3 3 3 4 6 9 10 14 16 17 17 18 17 17
11 13 13 12 13 13 14 14 14 13 12 10 9 9 8 8 5 3 2 4 5 7 9 11 14 15 17 17 15 14 18 16
12 15 16 15 15 15 15 17 14 11 10 10 8 4 6 5 3 3 3 5 7 10 12 13 15 17 17 16 15 12 15 15
15 16 18 18 17 17 16 14 12 11 9 8 6 6 5 4 2 3 5 7 10 12 15 16 16 18 17 15 14 14 13 17
17 20 21 19 17 16 16 15 14 12 12 11 11 8 5 3 3 5 7 10 11 12 14 16 17 17 16 15 13 12 15 17
17 17 19 19 18 17 16 15 15 14 13 12 11 9 7 5 6 6 9 10 11 13 15 16 18 17 16 14 10 15 18 15
17 18 18 18 18 18 16 16 15 14 13 12 10 7 4 2 2 6 7 10 11 14 15 17 17 15 14 10 14 17 14 14
17 18 18 18 18 18 18 17 15 14 13 9 7 7 5 1 2 5 7 9 12 14 15 16 16 14 16 15 17 18 17 14
15 17 17 18 19 19 18 17 16 13 9 9 10 8 5 2 3 6 9 10 12 14 15 16 17 17 17 19 19 21 21 15
16 16 19 20 21 21 20 19 16 12 11 12 10 7 6 5 6 7 9 12 13 15 16 16 16 17 17 19 22 21 21 18
16 19 20 22 23 23 22 19 13 12 13 12 10 9 8 8 8 9 11 13 14 16 17 17 17 17 16 18 21 19 16 15
16 19 21 23 24 23 22 17 13 12 12 12 12 11 10 10 10 11 12 13 15 17 17 17 16 16 16 18 16 14 12 12
17 16 20 23 24 24 22 17 12 14 15 14 13 11 11 12 12 13 14 14 16 17 17 18 17 17 14 11 11 12 12 12
16 16 18 23 24 23 22 17 12 16 14 13 12 12 12 13 14 14 15 14 16 17 17 17 17 14 10 7 10 10 10 11
16 17 21 23 24 23 23 15 15 15 14 13 13 12 12 14 14 15 16 15 16 16 16 15 14 9 6 10 6 7 12 14
16 17 21 22 23 23 22 16 13 14 12 12 12 12 13 14 15 16 16 16 16 16 14 11 11 3 6 6 5 8 12 14
14 17 19 21 20 19 19 14 13 12 9 9 11 11 14 14 15 16 16 16 16 14 13 11 10 5 8 8 7 8 12 12

GFSFLT1_925_spd_024.txt.gz
Wind_Speed
13 14 19 16 26 28 25 19 20 16 16 12 3 2 4 10 8 6 8 6 5 4 2 3 5 6 8 11 13 14 15 17
15 10 10 15 26 28 26 23 21 19 16 10 11 9 11 12 11 9 7 7 5 4 3 5 6 7 10 12 14 14 14 16
15 13 11 9 19 24 22 19 17 16 15 16 15 17 14 15 11 9 7 6 3 3 3 4 7 10 12 13 14 15 12 13
13 15 15 13 18 23 20 17 17 18 18 18 16 18 16 14 9 13 8 4 2 2 5 7 9 10 12 14 14 15 8 11
14 14 15 18 22 21 17 21 20 15 16 14 13 13 14 13 13 9 5 1 3 5 6 8 8 11 13 14 13 13 11 11
14 15 21 19 18 22 24 20 16 14 8 15 11 16 14 12 10 6 2 3 6 7 8 11 13 15 15 16 16 15 12 12
13 19 21 20 18 19 19 18 16 13 13 12 16 15 14 15 9 4 3 6 6 7 9 11 13 14 16 16 14 10 6 11
13 14 19 19 18 18 18 19 18 17 16 16 16 15 13 10 5 4 2 4 7 9 11 12 13 15 16 16 11 10 11 17
13 17 19 20 20 20 21 21 20 19 18 18 18 13 9 10 10 6 2 3 6 9 10 13 14 16 16 13 14 14 14 15
14 18 21 21 20 21 21 22 21 20 20 16 12 11 13 12 7 4 2 4 6 9 12 13 15 17 18 15 17 17 18 17
13 16 19 20 20 21 20 21 23 22 19 16 12 15 13 10 7 4 2 4 6 10 12 13 14 15 16 18 15 15 16 17
13 15 21 20 20 20 19 20 23 20 16 15 15 15 14 10 7 5 3 6 8 10 13 14 16 17 17 13 14 17 16 18
14 17 19 18 19 20 20 20 20 19 16 16 16 16 13 13 8 5 6 7 9 11 13 16 16 18 15 15 16 17 13 14
14 16 17 18 20 21 20 21 18 16 16 18 16 16 13 10 7 6 7 9 10 10 14 16 17 18 14 11 10 11 10 10
12 15 18 21 20 22 21 22 18 15 16 14 18 18 16 8 6 7 9 11 11 11 14 15 18 18 14 8 7 8 12 10
11 11 12 20 20 22 23 22 18 14 14 19 18 12 6 8 8 9 10 11 13 14 13 14 16 14 8 4 5 10 9 7
5 5 10 16 19 20 21 20 19 14 19 19 8 6 7 5 9 10 13 15 14 13 13 14 10 8 7 5 7 4 7 12
6 3 6 11 16 20 20 18 15 15 16 10 9 5 6 9 11 11 13 15 14 14 14 12 11 8 8 6 4 5 7 11
5 4 8 12 12 15 18 17 15 14 8 2 6 9 7 9 11 14 15 13 13 15 14 12 9 9 9 7 6 5 6 11

GFSFLT1_925_spd_027.txt.gz
Wind_Speed
26 29 35 37 39 38 34 31 29 26 25 16 8 9 5 13 14 15 13 12 10 7 4 4 3 1 4 8 11 11 11 13
25 26 33 33 40 38 38 34 29 27 27 17 12 14 17 15 18 16 11 8 8 6 7 4 3 4 7 10 9 11 14 10
17 16 24 31 34 37 38 34 28 25 27 19 16 19 19 21 17 13 11 10 6 4 1 3 7 11 12 9 11 14 12 7
9 16 26 31 32 38 35 32 27 23 25 23 22 22 24 19 16 15 12 7 5 1 4 5 7 8 9 11 12 11 4 8
13 17 20 30 28 32 29 26 24 26 26 23 29 29 26 20 21 16 11 9 8 5 3 1 3 6 9 11 12 14 11 4
16 16 24 30 31 26 26 22 23 23 23 29 31 25 23 26 22 18 15 9 6 5 4 6 10 13 11 12 15 14 9 3
11 23 27 28 24 21 24 21 22 20 26 25 27 31 29 26 20 16 11 6 4 0 3 8 10 11 13 13 13 5 3 6
12 13 17 22 23 23 27 27 22 22 23 27 29 29 25 20 16 11 9 7 3 2 6 8 10 11 12 14 10 10 13 12
13 15 20 27 27 27 25 26 25 22 22 23 23 20 18 13 12 11 9 6 2 2 5 7 10 12 13 13 15 14 14 15
12 17 24 27 23 21 22 25 23 21 20 21 18 15 12 14 13 9 6 3 2 2 7 8 10 13 15 15 14 16 12 11
11 16 23 28 25 22 19 25 25 24 23 20 15 11 13 14 11 9 6 3 4 5 6 9 11 14 15 17 11 7 10 9
13 16 25 31 30 29 23 25 27 26 23 18 11 13 13 13 10 10 6 5 4 6 8 10 13 15 17 9 12 13 13 10
14 21 25 28 32 33 29 26 30 27 21 15 11 14 14 13 11 9 7 7 5 6 7 9 13 14 15 16 15 12 9 7
13 16 23 27 28 34 32 29 32 27 22 16 14 15 15 13 12 10 8 6 6 8 9 10 13 15 16 14 7 6 6 5
15 13 19 27 31 33 35 31 31 28 23 16 16 17 18 13 15 8 5 6 7 9 11 13 12 14 13 6 5 4 4 5
7 12 12 21 23 26 31 31 30 27 21 19 16 14 18 15 5 3 2 7 11 15 17 13 12 9 9 11 9 9 7 2
8 9 11 18 22 26 31 33 31 28 25 18 13 9 11 9 4 6 7 8 11 15 13 12 11 11 10 10 8 7 6 5
8 7 10 17 25 32 31 33 32 25 17 13 15 11 5 6 7 12 14 17 16 11 11 12 13 13 11 9 8 7 6 4
6 5 6 20 25 28 29 31 27 16 19 20 13 9 6 9 9 11 15 14 14 14 15 13 15 13 11 12 11 8 6 6

GFSFLT1_925_spd_030.txt.gz
Wind_Speed
31 33 34 37 41 37 33 31 32 30 27 22 16 12 12 14 15 16 16 14 14 12 10 8 4 3 5 8 10 10 10 12
32 35 34 32 34 40 37 36 35 33 30 23 17 15 17 16 15 14 14 12 13 11 7 3 2 3 6 9 8 10 12 8
22 32 32 34 39 38 40 40 39 35 32 26 17 15 19 16 18 16 14 12 10 7 3 1 3 5 7 8 9 10 9 5
18 27 33 32 31 37 40 38 36 35 31 24 17 19 18 23 22 18 15 10 7 5 5 5 3 2 3 4 7 7 6 7
14 24 27 34 36 36 37 37 36 31 32 29 26 28 27 27 26 20 15 11 8 7 7 5 3 1 3 5 6 9 10 9
15 20 29 32 37 40 39 35 32 30 31 30 29 31 31 28 25 21 16 13 10 9 8 3 2 5 6 8 9 9 8 6
7 18 25 26 32 33 32 33 30 27 28 28 30 34 30 28 25 21 18 14 10 5 3 4 7 8 8 9 9 4 2 6
11 14 20 24 28 34 34 30 25 25 28 30 32 34 32 30 26 22 17 14 9 4 2 5 7 7 8 10 7 7 9 11
14 15 22 26 29 31 28 29 25 23 27 28 30 30 30 28 23 18 15 11 7 4 4 7 7 8 10 11 11 10 10 9
12 14 21 26 28 32 34 33 28 26 26 27 27 26 23 19 15 12 11 8 5 1 4 6 8 9 12 12 15 13 8 8
10 14 21 27 30 32 33 31 30 27 26 26 24 19 15 15 15 12 10 7 5 2 7 4 7 10 12 14 14 7 9 10
15 17 26 32 34 34 33 32 32 31 31 29 24 20 17 17 14 12 11 8 5 7 6 6 7 10 12 13 13 14 13 9
16 22 26 28 33 35 39 39 38 37 34 30 25 20 19 20 17 15 14 9 12 9 8 8 9 11 12 14 15 13 12 10
13 13 21 27 30 34 39 42 40 37 34 30 24 22 22 22 19 17 16 14 12 11 10 10 12 12 11 13 15 11 9 5
12 12 17 24 28 26 24 28 34 36 35 30 26 25 23 23 19 15 17 15 11 9 11 14 14 13 12 14 11 10 9 9
6 7 7 15 18 19 23 32 35 38 36 31 27 24 22 22 19 16 13 6 3 8 12 15 17 14 14 14 12 10 10 7
3 10 12 17 22 25 27 33 35 37 35 30 23 21 18 16 17 13 7 5 4 9 16 17 13 16 15 14 12 10 10 9
5 6 10 16 23 30 32 32 33 31 22 20 17 20 22 17 13 10 10 6 12 14 12 13 14 14 16 16 13 12 12 10
7 6 6 13 18 20 17 18 21 20 20 21 24 22 21 18 14 9 4 11 13 11 15 16 17 15 15 16 14 13 12 11

GFSFLT1_925_spd_033.txt.gz
Wind_Speed
23 26 29 31 28 27 27 29 31 30 26 25 23 21 19 15 13 13 13 15 17 15 13 10 7 5 2 1 5 5 7 10
24 26 29 27 26 30 30 33 33 32 32 28 24 22 18 16 15 15 16 18 16 12 11 8 7 3 2 3 4 8 11 10
20 24 26 27 32 36 36 36 37 38 37 32 26 21 18 18 20 18 14 14 14 11 8 8 4 1 2 6 9 9 8 6
16 23 29 29 33 41 43 41 40 40 36 30 21 20 20 20 21 18 16 13 12 9 8 3 1 3 6 9 8 7 5 5
17 23 28 32 36 35 36 39 41 40 37 32 28 27 24 22 26 21 18 14 11 7 4 3 5 6 9 11 9 7 6 7
17 21 28 31 28 34 37 39 38 39 38 35 29 28 28 26 25 22 18 14 11 9 6 5 7 8 9 9 10 8 7 5
9 19 22 23 28 35 38 36 38 37 36 36 29 26 27 26 25 22 19 16 13 10 8 7 8 11 10 9 7 4 4 5
12 14 22 23 31 36 32 33 34 36 34 31 29 25 27 26 30 26 22 18 14 11 8 4 10 7 6 7 8 7 7 8
16 19 24 26 29 30 28 31 34 33 31 26 28 27 29 29 31 27 23 20 15 12 3 11 4 4 5 7 7 7 8 9
15 17 23 23 27 30 35 36 30 30 30 30 30 28 28 30 28 23 20 17 13 4 3 3 3 4 5 8 8 8 6 6
8 12 19 23 29 32 36 35 34 33 30 30 30 27 29 32 30 28 23 17 15 10 9 5 5 6 7 8 8 6 8 11
11 13 22 27 30 30 31 34 35 33 32 32 33 32 30 28 27 25 22 19 18 14 10 12 10 9 8 7 8 10 12 13
12 14 18 23 29 32 37 39 40 38 34 32 31 31 29 28 28 25 20 20 17 13 13 11 10 10 9 11 10 11 12 12
5 7 13 20 25 27 27 26 27 33 33 31 32 31 30 31 28 25 23 22 19 17 13 11 11 12 15 14 14 13 13 13
7 6 9 17 19 21 24 25 29 31 32 34 33 33 33 31 29 27 24 22 18 14 9 10 12 17 18 17 15 15 12 13
7 6 6 13 14 19 23 26 28 29 34 35 36 34 30 27 25 20 19 14 10 6 5 11 17 20 19 17 17 15 14 14
8 9 11 15 20 21 23 27 32 33 33 28 21 19 15 11 10 15 15 11 7 2 10 14 16 13 14 17 18 18 16 15
8 6 4 10 17 25 27 25 25 23 16 14 14 14 18 23 20 15 10 5 3 6 11 15 14 14 14 17 20 19 17 17
7 9 9 7 5 9 11 13 16 17 18 21 24 27 25 17 13 8 2 3 7 8 13 15 15 15 15 16 19 20 20 19

GFSFLT1_925_spd_036.txt.gz
Wind_Speed
20 21 23 23 23 23 24 22 20 19 20 21 20 20 20 19 15 14 14 14 15 16 15 14 12 10 6 3 3 4 3 4
17 22 25 26 24 23 25 25 25 24 25 24 23 24 21 16 16 13 13 14 16 16 15 14 11 6 4 4 3 3 3 4
13 20 26 30 31 29 28 29 29 29 30 29 26 24 20 18 14 12 12 15 17 16 15 12 8 5 5 4 3 2 4 4
12 18 26 31 34 36 34 34 31 31 32 30 23 22 18 18 17 17 17 17 18 16 13 10 9 7 6 6 5 2 4 4
10 17 22 27 27 30 34 34 32 32 32 33 31 31 23 24 25 22 20 19 18 14 12 11 10 7 6 6 5 7 10 7
13 18 27 30 31 31 33 35 37 34 35 36 34 28 27 21 25 24 23 20 16 15 13 12 9 7 5 5 7 9 6 3
13 19 19 24 30 31 34 34 36 36 38 38 36 33 25 21 28 27 23 22 19 16 14 9 4 4 6 6 9 6 2 1
10 11 17 22 28 30 32 31 29 31 34 36 37 31 26 28 33 33 29 26 23 20 14 10 2 5 6 5 4 3 4 7
13 14 21 25 28 29 29 32 33 36 35 34 34 33 29 30 34 36 33 29 26 23 16 4 9 5 3 2 4 4 6 7
15 12 22 23 27 31 34 32 36 34 37 39 37 33 33 35 36 35 33 29 27 24 12 5 6 3 3 2 4 5 7 7
6 8 17 22 25 30 30 33 39 39 36 37 34 32 34 35 35 36 34 31 28 20 11 11 8 8 4 4 5 8 10 10
7 7 16 22 24 27 33 35 33 33 32 30 32 32 31 29 31 36 34 32 27 16 16 13 14 9 9 8 9 10 11 11
6 6 11 19 26 27 28 30 30 32 28 27 27 28 25 26 32 35 35 33 23 18 16 17 14 10 10 10 13 13 12 13
6 6 10 14 14 17 24 25 25 26 25 24 25 27 28 31 33 35 32 28 18 20 17 16 13 11 10 14 16 15 15 15
6 6 6 9 12 16 20 22 23 25 24 26 28 29 26 25 24 24 24 19 20 22 17 14 10 5 14 20 19 19 19 18
4 4 4 8 11 11 14 18 18 19 19 22 23 23 22 21 19 20 18 16 15 10 5 4 4 14 19 21 23 22 21 19
4 3 1 4 10 14 16 17 18 17 20 21 16 15 12 13 15 17 16 19 17 10 4 6 13 16 19 19 18 21 22 22
9 9 11 11 2 8 10 10 12 13 12 12 11 11 13 16 19 19 17 13 8 3 2 11 13 15 20 19 19 20 23 24
8 10 14 18 15 14 13 12 14 17 17 17 18 21 24 21 16 14 9 7 8 9 8 10 17 18 15 17 18 19 22 25

GFSFLT1_925_spd_039.txt.gz
Wind_Speed
18 18 20 21 21 22 24 25 23 20 19 17 17 19 19 18 18 18 16 16 16 15 16 16 15 13 10 7 4 4 3 2
15 19 20 20 21 22 23 23 22 20 20 18 16 18 20 20 19 16 15 16 16 18 19 18 16 12 10 7 5 3 1 2
14 19 21 25 26 26 24 25 25 24 22 22 16 18 20 21 19 17 17 17 20 20 20 19 15 12 9 7 4 3 3 5
12 19 23 23 26 26 25 24 26 26 24 24 21 19 17 17 18 18 18 20 21 21 20 18 15 12 10 6 5 6 5 6
14 21 24 25 26 26 28 28 29 27 27 23 26 21 18 17 20 20 21 22 22 21 19 17 16 13 8 6 5 5 8 4
18 21 24 24 26 27 28 25 26 24 27 25 28 23 21 21 22 21 21 22 22 22 20 20 18 13 10 8 7 4 4 3
19 24 22 23 22 23 24 22 19 22 26 28 30 25 27 22 25 24 23 23 23 23 23 21 18 14 12 8 5 1 6 5
17 18 22 23 24 25 25 23 25 27 27 30 31 33 32 28 28 30 29 28 26 28 26 25 19 15 10 4 4 7 8 5
17 19 23 24 24 23 24 25 27 29 29 31 32 31 31 29 29 33 34 34 32 30 28 22 17 11 6 6 10 7 7 6
17 16 21 21 23 27 27 24 25 32 25 29 28 28 28 31 31 31 34 35 33 31 28 23 15 11 10 11 8 6 6 5
9 10 15 17 19 19 20 23 27 32 26 23 25 24 26 31 31 31 31 35 35 34 29 20 16 13 14 12 6 5 5 6
5 7 9 12 14 17 21 21 20 19 23 26 24 24 26 27 28 30 34 37 33 32 28 21 16 14 13 7 4 3 12 10
4 6 7 9 12 13 14 16 18 21 22 23 24 24 25 27 29 31 32 34 29 30 24 20 17 17 13 8 4 10 17 15
5 4 4 6 7 8 11 14 17 19 18 16 15 16 17 18 22 23 25 25 28 33 23 22 19 18 11 9 11 16 18 20
2 2 2 2 4 6 7 7 8 8 8 8 9 11 12 13 16 18 24 28 29 28 24 20 16 12 8 8 18 19 20 22
3 3 4 4 4 5 5 6 7 7 7 7 8 9 10 11 12 13 16 20 21 19 16 15 9 4 9 19 18 19 20 20
10 8 6 4 2 2 5 8 7 7 7 8 9 10 9 10 10 12 13 13 15 14 11 5 2 14 19 21 17 22 21 21
10 10 11 11 10 7 8 8 9 10 10 10 11 12 13 13 15 19 22 20 14 10 4 16 19 20 20 16 21 20 19 19
9 10 12 13 14 16 16 15 15 15 14 14 14 16 19 21 21 16 13 10 6 9 13 17 17 17 15 17 20 22 21 21

GFSFLT1_925_spd_042.txt.gz
Wind_Speed
21 23 24 23 23 24 25 23 18 15 14 12 13 14 15 14 15 14 14 12 15 13 13 14 13 12 11 9 8 5 3 1
21 22 25 26 25 25 26 24 20 18 16 17 15 16 17 15 13 13 13 13 14 15 14 14 14 12 11 10 8 5 3 1
20 23 25 25 27 28 28 28 24 21 18 17 15 16 16 15 14 13 14 14 16 15 16 15 14 13 12 10 8 5 3 2
16 23 26 26 28 28 27 26 24 22 20 17 16 15 13 16 16 15 15 15 17 17 16 16 16 14 13 11 10 8 5 4
16 20 25 27 26 25 25 24 24 22 22 20 21 20 18 19 17 15 15 17 18 17 18 18 18 16 15 14 12 10 7 9
19 22 26 26 25 26 26 26 25 24 24 23 22 22 19 16 16 16 16 16 17 18 19 19 19 17 16 14 13 11 11 14
18 22 23 24 26 27 27 28 28 26 21 21 21 21 21 16 19 19 19 19 19 19 19 19 17 15 15 14 12 11 12 11
19 20 24 25 28 28 29 29 30 27 29 25 29 25 22 24 23 24 24 22 21 22 23 20 18 16 15 13 13 11 11 11
20 19 23 24 26 28 28 29 28 29 28 29 21 22 25 23 24 22 23 26 24 27 26 23 19 16 15 12 13 10 10 9
15 18 23 23 22 25 27 26 26 26 27 25 22 24 23 22 22 21 21 27 27 26 28 24 20 19 15 13 8 11 10 9
6 8 12 16 19 20 21 23 24 23 23 23 19 18 19 19 20 22 24 24 25 22 24 22 18 19 17 15 11 12 7 7
3 5 7 10 13 15 17 18 18 19 19 20 17 17 17 17 19 19 20 22 25 26 26 23 22 22 19 14 12 9 8 11
2 5 7 8 9 10 11 12 14 15 15 16 15 13 11 13 14 14 14 17 24 21 23 23 24 18 15 17 13 9 7 13
3 5 6 9 9 9 10 9 10 10 11 10 10 9 9 10 13 14 16 18 19 18 19 17 13 12 15 13 10 7 17 16
4 6 5 6 8 9 9 9 9 9 8 7 7 7 8 8 8 9 12 12 14 17 18 16 15 13 13 8 11 20 20 19
4 5 6 8 9 9 9 9 9 8 8 7 6 6 6 6 6 7 8 10 12 15 15 18 15 14 12 16 17 18 19 20
7 7 8 9 10 12 11 11 10 9 9 10 9 9 9 9 9 9 10 12 14 18 14 14 15 15 15 19 23 22 19 22
10 10 10 12 12 13 14 14 13 13 13 12 11 11 11 12 12 13 14 13 13 13 13 13 14 15 21 22 24 17 20 22
10 11 13 15 16 17 17 16 16 16 15 14 13 13 14 13 13 12 11 10 8 8 9 11 13 13 18 18 17 18 21 23

GFSFLT1_925_spd_045.txt.gz
Wind_Speed
23 21 27 30 30 31 28 28 28 20 17 15 16 16 17 18 18 17 16 14 12 13 12 12 13 11 10 10 10 8 6 4
18 25 27 23 26 28 26 26 27 18 18 19 18 18 19 18 17 16 15 15 14 15 14 14 14 13 13 12 11 9 7 5
23 26 28 27 28 27 27 28 27 24 19 19 18 18 20 19 18 16 16 16 17 17 16 15 16 15 15 15 14 11 8 7
20 25 26 28 29 29 29 29 27 25 22 19 16 15 16 19 19 19 19 20 19 19 18 17 16 16 17 16 15 14 12 9
20 23 27 28 29 28 28 29 28 25 23 20 20 20 21 19 18 19 18 20 18 20 18 17 17 17 17 17 15 13 11 9
21 23 29 30 30 30 29 29 29 28 27 25 21 19 17 17 20 18 19 18 20 19 18 19 18 18 16 15 13 12 10 6
20 27 29 30 31 31 30 30 30 29 28 25 21 19 20 20 15 18 18 19 18 20 22 21 21 20 17 15 14 13 10 7
20 21 24 29 31 31 31 32 33 32 28 26 28 27 24 24 23 20 16 17 19 21 23 22 22 22 17 15 16 16 11 9
20 22 26 29 30 32 32 32 32 31 29 31 29 30 31 23 23 27 28 25 23 20 24 27 25 21 20 18 19 15 10 6
22 22 27 27 29 29 30 28 29 28 28 31 32 31 22 20 19 24 26 24 21 24 30 28 25 23 21 16 16 12 9 8
10 14 23 27 26 24 27 27 26 24 22 28 32 26 18 18 18 21 25 21 22 25 29 29 27 21 19 17 13 11 9 8
5 7 10 14 17 21 23 24 25 29 29 24 26 19 16 18 18 18 20 20 21 21 20 22 22 20 17 15 13 13 13 5
6 7 9 11 13 15 19 20 22 22 30 23 24 18 15 15 17 18 19 18 20 20 22 24 19 19 19 16 13 12 10 4
5 6 8 11 13 15 15 17 17 17 17 22 20 16 14 12 13 15 15 17 17 17 18 19 21 16 17 15 14 15 11 18
7 8 9 12 12 12 13 12 12 12 13 12 12 11 9 9 8 9 10 11 11 13 16 18 17 20 16 17 15 16 19 14
7 9 9 12 12 12 14 12 13 13 12 12 11 9 10 10 10 9 9 9 11 13 14 14 16 17 21 20 17 16 13 14
6 7 9 10 12 13 14 14 13 12 14 13 13 12 12 11 11 11 11 11 11 14 13 15 17 13 14 15 14 9 17 18
9 9 9 11 13 14 15 15 16 16 17 16 15 14 14 13 12 12 11 10 11 10 9 9 8 7 9 12 16 18 20 23
11 11 14 16 17 18 18 18 18 18 18 17 16 15 15 14 13 13 11 10 9 7 5 3 4 6 9 13 15 16 17 19

GFSFLT1_925_spd_048.txt.gz
Wind_Speed
19 23 24 26 27 25 27 26 38 29 31 41 34 25 25 25 27 25 22 21 18 18 16 16 18 15 14 13 11 12 8 11
21 27 31 27 31 28 29 31 32 31 28 29 27 24 21 26 23 26 26 25 22 21 20 20 17 16 16 17 14 12 13 7
20 29 31 32 34 34 33 33 33 33 32 33 25 24 24 25 24 25 21 21 21 21 22 21 19 18 18 17 17 15 15 15
18 24 28 31 33 35 35 36 35 34 28 27 24 24 23 25 23 20 23 20 20 20 21 18 19 20 19 20 20 18 18 13
20 25 31 34 35 37 35 33 34 36 33 29 24 22 20 23 22 22 25 23 22 21 22 21 18 20 17 21 20 22 17 12
23 23 30 36 34 37 36 37 38 35 30 26 29 23 22 24 30 27 26 21 20 23 20 21 22 19 19 19 21 21 16 11
21 30 30 30 32 33 37 36 36 33 35 32 24 22 22 19 22 29 25 20 20 24 23 22 23 22 22 21 21 19 16 16
19 22 24 30 32 35 32 32 29 30 33 36 32 20 23 26 21 14 17 10 14 23 24 23 25 22 21 17 17 18 18 13
19 20 27 30 33 34 34 33 34 30 32 29 33 34 31 30 26 26 22 19 35 29 27 25 25 24 21 20 21 18 15 12
18 19 28 33 35 37 38 34 32 32 35 39 42 37 27 26 22 25 27 25 26 30 24 27 25 25 24 23 22 18 14 12
8 17 22 31 36 41 42 41 38 36 34 37 40 39 35 23 17 18 20 22 25 27 28 27 27 24 24 25 22 17 14 12
2 5 4 23 30 39 42 37 33 29 29 29 27 30 26 20 18 16 18 20 27 26 24 22 24 25 26 25 17 16 16 14
8 2 2 4 3 8 31 30 29 27 30 29 29 29 22 19 19 18 18 23 23 21 17 18 22 26 25 20 19 17 19 16
6 8 5 5 3 5 10 16 16 19 26 27 23 25 19 19 18 17 18 18 15 14 18 21 22 22 20 14 16 21 21 17
5 9 7 10 12 10 10 11 12 13 22 20 24 21 18 14 14 14 14 15 16 19 16 18 20 20 19 19 23 23 22 19
5 6 10 13 11 13 13 14 12 18 25 23 20 16 13 11 10 10 10 11 12 14 16 18 20 17 18 22 21 21 18 15
6 6 12 14 16 16 16 16 13 15 24 23 23 21 18 15 16 16 16 14 15 16 16 16 16 18 18 15 13 11 13 14
4 5 9 16 15 20 17 17 16 18 18 19 19 19 18 16 17 16 17 16 16 13 12 12 12 9 7 9 9 13 15 18
5 5 11 18 19 19 20 19 19 20 20 19 18 18 18 17 17 17 15 15 13 12 10 7 7 9 7 7 8 10 11 13

GFSFLT1_925_spd_051.txt.gz
Wind_Speed
18 18 23 24 27 23 29 31 37 34 37 37 35 31 19 23 23 20 24 23 23 17 19 19 18 21 19 17 17 17 17 17
24 23 23 24 27 31 32 30 37 37 33 29 30 31 28 24 27 24 26 25 25 24 24 19 20 21 21 21 18 20 16 14
23 26 26 26 28 32 31 34 37 36 23 33 29 30 26 22 27 25 31 31 28 28 28 25 22 21 22 25 25 19 19 14
19 26 29 29 30 31 32 32 41 32 27 27 27 27 25 28 29 33 30 33 32 29 28 27 23 24 25 25 27 24 20 16
18 24 28 30 33 34 35 35 37 35 34 29 31 27 23 28 31 32 32 31 30 29 26 25 25 26 26 25 25 25 20 18
22 24 33 35 34 36 37 40 40 39 39 39 36 32 29 33 34 33 32 29 29 27 27 26 25 24 25 22 25 26 25 20
23 33 34 35 36 37 39 41 43 43 46 45 36 33 35 32 34 35 31 31 29 26 20 29 25 24 22 24 23 23 23 18
22 23 28 34 38 39 40 43 43 45 44 44 42 39 35 39 34 33 37 29 28 27 23 32 24 23 24 23 19 24 23 20
25 26 33 38 43 42 43 41 41 41 43 43 40 44 43 42 35 28 31 36 34 20 25 21 23 23 22 23 22 23 21 20
23 24 35 37 41 44 44 42 40 38 42 44 46 47 35 39 36 31 24 26 28 21 23 19 24 21 24 25 24 22 22 20
19 22 32 39 43 44 45 46 46 48 44 46 49 48 34 33 28 24 21 20 24 22 20 20 26 25 25 25 23 24 22 16
9 12 25 35 36 35 32 23 19 30 39 38 40 40 41 34 24 20 18 18 19 19 20 25 26 26 25 24 26 22 17 15
6 7 12 17 31 27 36 35 40 42 35 33 34 39 33 28 20 21 19 20 19 19 21 24 24 24 25 26 23 19 18 21
7 5 5 7 13 37 37 35 43 40 29 33 32 30 34 32 25 24 21 22 21 20 22 21 22 23 25 25 22 18 20 19
8 7 7 7 9 20 29 33 41 35 41 33 27 28 32 31 26 20 19 20 22 23 21 20 21 23 23 22 17 18 17 21
8 8 7 9 14 20 25 26 29 36 33 33 29 27 25 25 23 20 20 20 19 19 20 20 19 20 20 18 16 15 22 19
8 8 7 9 16 21 25 25 24 26 27 28 28 26 23 21 20 18 16 16 17 17 16 17 17 17 16 13 13 16 14 13
9 9 10 13 19 27 26 23 24 24 26 25 25 26 25 22 20 20 19 18 17 17 17 16 16 13 13 14 13 12 11 10
8 10 11 20 26 29 31 30 30 27 23 24 28 28 28 27 25 24 21 20 18 17 17 16 17 15 13 13 12 10 9 7

GFSFLT1_925_spd_057.txt.gz
Wind_Speed
11 12 11 14 19 23 24 24 29 26 30 26 25 24 29 29 23 18 21 22 20 22 18 14 13 19 23 22 21 22 20 19
12 10 11 12 15 19 25 25 27 25 31 31 27 23 26 29 31 20 21 22 19 17 15 14 15 17 21 24 26 25 23 19
10 14 14 16 17 18 20 26 31 31 31 26 20 26 28 29 34 30 21 18 16 16 16 15 17 18 20 23 26 26 24 20
12 16 17 16 20 21 21 24 28 29 32 28 24 24 21 21 27 31 23 22 19 16 19 20 19 21 22 24 27 28 26 21
8 13 16 19 19 21 21 26 29 28 30 27 25 22 23 24 29 30 27 23 25 22 23 21 22 26 26 27 29 31 29 24
12 13 20 23 20 24 24 28 31 29 29 32 28 26 22 25 26 30 31 29 29 29 29 27 28 29 31 31 31 31 30 26
11 15 18 21 24 24 27 29 34 37 34 35 34 34 34 30 31 33 33 33 33 35 34 35 34 33 37 30 27 28 26 26
12 13 17 21 25 27 29 31 31 34 38 40 40 41 42 39 40 37 36 35 35 36 36 37 36 38 36 27 28 29 27 31
16 17 22 26 29 31 32 32 34 35 39 42 43 41 40 43 39 37 37 37 37 34 34 35 36 36 33 27 26 27 28 28
19 17 26 26 29 35 37 34 34 36 38 35 35 37 38 35 37 36 35 38 38 37 35 36 38 38 36 27 25 28 28 29
16 16 24 30 34 34 32 34 35 31 30 36 37 39 42 40 39 38 35 36 36 38 37 34 35 40 34 28 28 27 27 26
17 18 28 31 29 31 31 34 33 33 38 40 43 45 51 44 37 37 38 33 36 34 32 28 27 30 28 27 26 28 27 27
17 18 24 26 32 31 36 37 37 42 42 42 45 40 38 35 36 38 39 40 35 34 39 38 30 32 30 27 30 31 30 28
11 12 14 23 30 32 36 39 43 46 43 41 39 39 35 37 36 36 40 44 44 36 36 32 31 30 29 32 35 30 30 29
10 9 14 22 30 35 36 40 44 44 43 42 40 39 39 38 40 41 43 38 40 40 35 31 30 29 30 33 30 28 27 25
9 12 13 14 22 29 33 37 37 38 39 40 42 38 37 39 38 40 37 36 37 37 32 31 30 28 29 30 29 26 25 23
12 12 11 12 22 28 32 33 34 34 36 39 36 35 36 37 35 32 33 34 34 32 32 30 27 28 28 27 26 25 24 23
11 13 15 16 24 26 28 31 29 32 32 29 32 32 30 28 32 32 30 32 33 31 27 25 26 25 22 21 21 21 21 19
9 9 13 21 21 22 22 22 26 26 25 25 26 28 27 26 26 27 28 27 27 26 23 23 23 20 19 19 18 17 17 17

GFSFLT1_925_spd_060.txt.gz
Wind_Speed
9 8 8 12 15 18 20 22 27 31 27 30 25 29 28 32 36 42 35 33 28 25 24 21 19 18 18 18 15 15 15 14
11 11 10 13 14 17 21 24 23 30 34 29 24 24 26 26 27 29 27 26 25 24 23 17 20 20 22 18 17 17 19 15
11 13 14 15 15 15 18 22 26 26 28 26 25 26 27 25 25 26 26 20 16 18 16 16 17 18 19 15 18 21 21 19
13 14 15 17 18 20 20 22 28 29 30 31 22 20 18 24 27 25 29 23 19 19 16 20 16 19 14 17 21 23 24 22
13 14 16 18 20 21 21 24 27 31 33 30 25 20 17 19 34 28 30 28 27 18 19 18 18 18 18 20 21 24 25 23
15 15 20 21 23 23 22 24 25 27 35 31 31 28 24 21 29 34 33 35 23 23 23 22 19 21 23 21 23 27 28 28
13 19 21 22 26 27 24 27 29 30 35 35 40 36 34 31 27 29 38 42 34 29 26 25 25 26 26 25 28 28 27 30
13 15 16 22 26 32 32 30 28 33 34 36 38 38 39 36 35 32 32 35 37 34 30 27 28 30 29 31 28 29 34 29
14 16 20 23 28 29 31 31 30 32 35 36 38 37 37 39 39 39 38 38 40 37 32 29 29 29 31 35 31 36 33 33
15 14 21 25 28 31 34 31 31 32 35 37 38 39 39 35 38 41 41 41 39 36 34 31 30 31 30 33 33 32 28 29
11 13 20 26 29 31 34 36 35 35 35 37 38 38 40 38 37 39 41 43 43 40 36 33 33 32 32 34 34 31 26 26
12 13 22 25 24 31 34 34 34 35 38 38 38 41 42 40 41 41 41 41 41 40 38 35 34 32 29 30 32 32 27 25
10 9 12 19 23 26 31 32 36 41 40 38 38 35 38 46 46 43 37 38 37 41 41 42 37 37 33 30 29 29 26 24
7 8 13 17 23 26 29 33 42 36 37 37 37 42 42 40 39 36 36 37 37 39 41 37 36 35 33 35 31 31 28 29
7 7 12 17 24 27 29 34 38 33 34 35 35 39 41 40 37 41 41 39 38 43 36 34 37 36 32 31 29 30 29 27
8 10 12 13 19 24 27 31 33 33 33 34 39 39 37 34 34 37 40 40 42 42 36 35 37 34 32 30 29 30 27 25
9 9 9 12 21 26 29 30 30 32 33 37 38 33 34 35 34 34 35 36 37 34 37 37 39 35 33 30 28 28 26 26
10 12 14 14 23 30 28 32 26 32 33 33 32 32 32 33 31 31 33 33 33 36 35 36 33 30 27 25 25 24 24 22
11 11 8 21 27 28 30 24 29 31 28 28 29 30 29 27 29 30 29 30 31 33 31 29 27 26 22 21 22 20 21 20

GFSFLT1_925_spd_063.txt.gz
Wind_Speed
7 7 6 7 13 20 24 27 29 26 31 23 30 23 27 36 40 40 33 35 33 32 30 27 27 27 23 22 21 19 18 15
10 9 9 9 15 21 22 26 29 32 32 28 30 28 29 32 43 43 40 36 33 30 28 26 25 23 24 22 18 19 17 17
13 12 10 11 12 16 20 24 29 31 34 27 31 27 20 31 33 39 38 34 31 30 29 27 23 25 20 24 22 18 13 17
13 13 16 15 16 16 16 21 26 30 30 27 25 24 24 24 28 32 35 32 35 29 27 23 27 26 21 25 24 23 15 18
15 16 19 19 19 18 18 19 25 30 34 33 36 29 24 23 30 31 35 34 32 25 20 17 20 17 17 17 17 23 18 13
18 17 22 20 18 19 19 20 21 28 34 35 30 24 23 25 30 33 34 30 32 29 25 21 28 23 22 21 22 24 23 17
17 20 20 20 20 20 20 21 22 27 29 30 31 26 25 27 26 32 34 33 32 26 28 31 28 24 25 24 23 24 24 24
17 19 21 24 26 26 25 25 24 25 31 32 31 25 25 26 30 27 30 32 34 34 33 30 26 23 24 25 25 26 26 27
19 20 25 28 29 30 29 28 27 28 29 32 33 30 28 26 31 34 35 31 33 37 37 32 28 27 26 24 23 23 25 28
19 19 25 26 30 33 33 31 30 31 31 32 33 32 33 31 31 33 37 38 37 39 38 35 33 30 27 25 24 24 26 29
14 17 24 27 28 30 32 33 34 34 33 33 34 35 35 36 32 37 38 38 36 37 40 38 33 31 28 26 25 28 27 28
14 15 20 23 24 28 30 33 33 33 35 35 35 37 38 37 37 39 41 41 39 38 39 38 37 35 32 29 29 28 30 27
12 13 19 23 26 28 31 30 32 34 34 35 38 38 37 36 42 44 38 38 35 39 36 32 37 39 37 33 33 35 36 31
8 12 14 19 24 27 30 32 36 32 35 37 35 36 36 41 43 39 36 32 33 31 32 35 36 40 38 38 40 36 35 32
6 10 14 19 24 27 29 31 31 32 33 34 34 37 40 39 38 35 36 36 35 35 36 37 36 38 37 40 38 34 34 32
8 10 12 13 19 24 27 28 30 32 32 34 39 35 34 34 33 34 35 36 38 37 35 33 32 33 35 35 36 35 34 33
9 10 11 14 21 25 25 25 30 31 32 36 32 30 31 34 32 32 31 33 34 32 34 33 31 35 37 39 37 35 34 33
10 9 12 15 21 27 27 30 26 30 32 31 28 28 29 30 29 28 30 32 30 33 33 33 34 36 39 36 35 34 32 30
10 9 8 17 20 21 25 21 27 28 29 29 28 28 28 26 26 28 28 27 29 29 31 35 35 37 36 30 29 28 24 23

GFSFLT1_925_spd_066.txt.gz
Wind_Speed
8 7 7 7 15 16 20 19 27 26 25 23 25 31 35 37 29 24 26 27 29 27 25 21 20 18 20 18 17 14 14 14
10 9 10 10 15 18 18 22 28 24 25 27 27 29 28 36 32 27 24 25 29 26 21 22 23 20 18 17 16 14 11 11
13 12 12 15 17 20 24 23 25 26 25 26 26 26 24 33 37 30 25 23 36 32 22 25 22 19 17 18 17 14 12 14
15 15 16 16 16 18 19 23 27 25 25 21 22 18 23 21 30 33 28 26 34 33 28 24 21 19 19 18 17 17 17 14
15 16 19 21 19 17 19 20 27 27 28 27 28 33 31 28 32 37 27 28 35 35 29 22 21 23 19 16 17 19 18 13
18 18 21 22 22 22 21 21 22 28 32 30 30 28 30 23 25 30 36 28 35 35 33 25 24 23 21 18 16 17 16 17
18 21 21 20 22 24 24 23 24 25 33 33 32 32 29 23 23 28 32 32 35 29 32 30 26 24 18 18 21 24 17 18
19 20 19 24 24 24 25 26 27 27 31 31 34 31 26 25 26 25 30 33 34 40 37 34 33 30 27 27 27 20 19 19
20 21 22 25 28 28 27 29 28 29 31 33 35 33 29 28 30 31 30 34 36 43 40 37 40 32 31 27 27 23 21 22
19 19 23 25 27 30 31 29 29 31 33 35 35 35 35 33 32 31 33 32 30 31 35 39 38 31 29 27 28 27 24 24
16 17 22 24 25 27 28 29 30 31 32 35 37 38 37 37 35 36 37 36 36 35 34 33 34 32 32 31 31 29 28 27
14 16 21 24 24 27 28 29 29 30 32 33 35 38 39 40 37 38 38 36 38 37 37 36 36 35 35 33 32 31 29 25
12 15 20 24 27 28 30 30 31 32 32 33 34 33 35 38 40 40 39 41 39 40 40 39 39 38 36 35 35 32 28 25
8 12 16 20 27 29 31 33 35 32 32 33 33 35 36 38 39 38 38 38 39 39 40 40 40 40 39 38 36 35 37 35
7 10 13 18 24 28 30 32 33 34 34 34 35 36 38 37 36 36 37 38 38 39 40 39 38 38 38 37 36 35 35 42
10 10 10 14 20 25 27 30 32 33 34 35 39 37 35 34 34 35 35 36 38 39 38 38 38 37 36 35 33 30 28 31
12 14 14 13 18 24 26 29 31 32 35 39 35 34 34 36 35 34 33 34 35 35 37 36 35 34 36 36 33 27 28 31
14 11 11 11 17 22 25 29 26 30 33 32 32 31 32 33 32 32 34 34 31 33 34 33 34 33 34 37 37 37 37 36
13 9 8 10 15 19 22 22 28 30 30 29 29 30 30 28 29 30 30 29 30 30 30 30 29 30 34 38 39 40 34 34

GFSFLT1_925_spd_069.txt.gz
Wind_Speed
11 9 9 9 9 14 16 14 17 19 19 23 23 30 26 34 38 25 25 22 25 24 21 20 22 19 18 18 17 16 15 15
12 11 10 10 10 13 18 19 23 21 23 22 26 25 29 29 35 26 25 26 27 25 22 20 21 17 17 18 17 16 14 14
12 14 13 13 15 17 19 20 25 26 21 20 21 29 30 35 38 33 28 28 28 25 23 22 20 19 20 19 18 15 15 15
15 14 16 16 18 20 19 20 23 25 21 22 21 23 24 27 30 32 24 21 24 27 22 23 27 23 21 21 20 19 20 17
16 16 18 20 20 18 20 21 23 26 23 26 23 30 26 32 34 24 29 22 21 23 24 33 26 23 20 21 20 20 18 17
18 17 20 21 23 22 21 21 22 24 26 26 27 24 27 25 32 27 23 27 25 28 31 29 28 19 20 20 22 21 19 18
17 20 20 20 23 23 24 25 23 24 27 27 30 29 26 27 27 32 28 27 27 26 33 31 28 29 26 24 20 16 19 16
18 19 17 22 23 25 25 27 26 26 29 28 30 29 30 35 27 28 30 28 29 27 33 35 34 30 29 27 26 21 25 20
19 20 18 22 25 25 25 27 27 28 30 31 31 31 31 33 34 29 30 31 34 32 33 35 36 37 30 31 28 32 24 23
19 19 21 23 24 26 26 25 26 28 29 30 32 33 32 31 31 32 29 32 34 38 41 38 36 35 35 33 29 28 27 26
18 19 19 24 25 25 26 26 26 27 29 31 32 32 34 32 33 34 33 33 35 35 37 39 39 40 37 37 37 32 30 31
15 17 22 24 25 26 27 27 27 28 29 30 33 34 35 34 33 34 34 33 34 36 38 40 41 41 39 36 36 35 34 34
12 15 18 24 25 27 29 29 29 29 29 30 31 33 34 36 37 35 34 35 35 38 37 39 40 41 40 40 38 36 36 36
7 12 15 17 25 27 28 30 31 30 30 31 31 32 34 36 36 36 34 35 34 38 38 40 38 39 39 40 39 39 38 37
3 7 11 15 22 26 28 29 30 31 32 33 34 34 37 36 35 35 37 36 37 39 40 40 40 40 39 39 39 39 39 38
7 7 9 11 17 23 27 28 30 31 32 34 36 35 34 34 34 36 37 38 38 37 38 40 42 41 41 41 40 41 41 40
10 15 11 12 16 20 24 28 29 31 33 36 33 32 34 35 35 35 35 37 38 39 41 39 40 41 41 44 44 37 38 37
13 12 11 9 12 11 19 24 25 29 32 34 34 33 34 35 34 34 37 38 35 39 38 38 39 39 42 44 43 43 35 33
14 12 12 14 14 12 13 17 23 28 31 30 31 32 34 33 34 36 35 35 37 36 36 36 35 36 37 39 40 40 35 37

GFSFLT1_925_spd_072.txt.gz
Wind_Speed
15 14 12 12 11 14 16 13 12 17 19 21 27 30 34 36 33 35 37 36 29 28 27 21 26 25 22 23 21 20 19 17
17 17 14 14 12 21 21 18 16 18 22 23 24 25 30 35 36 36 38 30 32 25 25 22 20 21 19 21 20 17 17 16
14 17 17 16 16 20 23 19 19 20 21 23 20 25 27 36 40 32 32 33 32 28 28 29 26 20 21 18 20 16 14 17
15 14 17 18 17 20 24 23 23 24 22 23 23 23 24 27 31 33 32 29 31 26 26 32 30 26 27 23 22 21 19 19
16 15 17 20 20 20 21 23 25 24 23 23 27 21 24 28 37 32 34 30 29 29 27 31 34 29 26 26 24 25 25 24
16 16 19 21 22 22 23 22 23 22 22 25 27 25 27 28 31 28 26 24 30 29 29 30 33 29 24 24 24 27 28 21
15 19 21 22 24 22 22 23 24 25 24 26 28 28 29 29 31 29 27 29 29 32 29 32 32 31 25 24 23 31 23 17
15 17 16 22 26 24 23 24 23 23 28 26 27 25 29 32 37 35 29 28 28 31 35 29 35 32 28 28 30 22 21 21
16 17 16 21 27 28 26 26 24 27 26 28 28 28 28 28 34 37 36 31 32 31 33 35 34 33 34 31 25 24 24 26
16 16 16 22 26 28 30 29 28 28 29 26 27 29 30 28 29 32 36 33 30 30 30 33 36 39 40 34 31 31 28 33
14 15 14 22 26 26 28 29 30 32 33 31 29 28 29 28 29 32 30 33 32 33 38 37 39 41 41 39 37 36 32 37
14 13 19 21 23 25 26 26 26 30 35 32 33 32 30 31 32 33 37 30 32 34 37 39 39 40 39 37 36 35 37 36
11 12 13 20 21 24 27 27 26 26 31 32 32 33 34 34 34 34 34 36 34 34 34 36 39 39 38 40 39 37 38 38
8 9 10 13 19 22 23 25 25 25 26 30 32 34 35 36 37 36 35 36 38 38 39 40 39 39 38 41 42 42 41 41
3 8 9 10 19 21 23 24 27 27 27 29 31 33 37 37 35 36 37 36 37 38 39 41 40 42 42 42 42 43 43 43
9 8 1 10 14 19 23 25 28 28 27 29 31 32 32 33 35 37 37 40 38 39 38 41 41 42 42 43 43 43 41 42
14 14 14 11 2 17 23 25 27 29 30 31 27 29 31 34 35 36 38 39 40 39 41 42 40 43 45 48 47 41 40 39
14 15 15 16 20 19 17 17 25 29 30 29 29 29 31 33 33 33 37 39 38 42 43 40 42 44 45 47 47 47 40 37
12 11 13 22 27 29 27 25 19 24 27 27 29 29 29 28 30 34 35 34 36 37 38 39 37 40 40 42 45 44 44 40

GFSFLT1_925_spd_075.txt.gz
Wind_Speed
22 28 28 24 20 18 18 15 14 12 13 16 27 31 35 40 43 42 40 37 38 43 36 39 35 36 33 29 32 29 29 29
25 27 31 25 22 20 20 20 20 18 19 21 25 24 27 35 41 42 42 40 39 39 38 39 34 37 33 37 33 29 30 30
16 24 25 27 24 23 23 22 23 24 22 20 18 25 23 31 35 43 45 39 38 35 32 35 25 32 30 35 31 28 28 28
17 17 24 28 25 25 24 24 24 26 24 22 21 22 23 21 27 33 37 42 36 30 37 33 30 33 29 33 32 27 28 23
17 15 19 25 25 25 25 25 25 24 27 25 26 20 21 23 27 29 32 36 33 30 32 33 40 41 40 32 29 28 28 28
20 19 25 27 29 26 27 28 28 26 25 27 27 20 24 26 27 27 29 33 33 30 31 32 31 31 32 31 29 30 29 27
18 20 26 27 30 25 26 27 26 27 27 29 29 27 23 25 27 27 27 30 29 33 30 30 32 32 32 32 31 29 29 26
18 19 17 25 29 27 27 28 27 27 27 29 29 29 32 30 31 31 28 29 25 34 34 34 35 37 35 34 35 33 30 24
20 20 18 26 29 29 27 28 28 29 30 29 29 28 31 31 34 34 31 31 34 35 34 30 34 33 37 32 34 32 32 27
20 18 19 27 29 29 31 28 26 28 30 30 29 27 30 29 33 33 31 29 28 31 34 34 32 32 33 36 35 32 28 29
17 17 15 26 30 30 30 31 29 27 29 29 30 30 31 27 31 37 36 35 30 29 30 33 36 38 37 37 36 34 34 34
16 16 21 27 30 30 31 30 29 30 33 29 28 29 32 32 31 35 37 37 38 36 39 38 38 40 39 42 39 40 40 40
12 16 15 22 26 28 30 29 30 31 34 34 35 33 30 32 31 35 38 36 38 40 41 41 40 40 41 44 42 38 39 39
9 12 13 13 22 26 28 30 29 28 35 34 34 35 36 33 32 33 37 40 38 40 40 41 42 42 42 43 43 41 41 42
9 7 6 14 22 26 27 29 33 34 31 33 33 35 35 37 35 34 36 37 39 39 40 39 42 43 43 43 43 44 45 45
17 14 13 14 3 15 26 31 33 36 32 32 34 34 35 35 37 35 34 35 38 39 38 40 40 41 41 43 43 43 42 43
16 17 17 15 20 19 18 7 24 34 32 32 30 32 35 36 35 35 37 38 37 36 38 39 39 42 44 46 44 39 40 41
15 15 15 19 22 19 19 21 22 12 26 29 31 34 35 35 36 37 38 37 36 40 39 36 38 40 43 45 46 47 39 41
14 13 19 24 25 29 23 26 26 25 24 13 9 14 28 31 34 36 36 35 37 38 38 39 38 40 38 40 42 46 47 43

GFSFLT1_925_spd_078.txt.gz
Wind_Speed
19 25 28 29 25 20 14 13 11 14 15 18 24 29 32 39 38 40 46 43 43 43 41 39 44 44 40 35 32 29 28 24
20 23 29 29 25 22 18 17 13 13 17 21 20 21 27 34 36 40 44 42 41 41 41 38 41 44 42 35 33 33 32 28
13 20 23 24 25 25 21 19 17 16 18 18 17 22 24 31 36 37 39 41 41 38 38 39 39 39 39 34 35 30 28 31
15 16 22 22 24 28 24 23 22 18 19 18 18 21 19 20 29 31 35 37 36 33 32 38 36 40 37 35 37 33 25 33
18 17 19 24 25 30 27 25 23 20 21 19 23 15 15 14 26 29 30 33 34 32 32 33 30 33 33 32 36 33 30 28
20 20 23 23 29 29 29 28 26 24 23 23 22 18 16 20 22 25 29 33 33 32 29 30 34 26 32 27 30 29 31 34
16 17 23 22 27 28 28 28 27 26 28 24 23 22 22 22 22 23 26 29 31 28 25 33 35 35 33 27 32 37 33 34
18 19 16 23 26 27 27 27 27 28 27 28 28 27 25 27 25 24 24 25 28 32 26 31 33 34 37 41 44 40 34 33
20 20 18 25 27 27 27 27 25 27 27 29 29 27 27 26 30 27 28 29 32 36 34 30 34 36 39 43 41 35 34 33
19 17 18 25 29 31 31 27 25 27 27 29 28 28 27 30 29 32 33 30 28 30 32 36 36 34 34 33 34 34 35 36
15 16 15 25 28 29 31 31 28 28 28 29 28 27 29 32 33 33 33 36 35 37 34 35 34 35 36 35 37 37 38 39
16 15 19 24 25 27 29 30 29 28 29 28 28 27 29 29 32 35 36 35 36 36 40 39 38 37 38 39 39 41 41 41
14 15 16 21 24 25 28 29 30 31 34 31 30 29 29 31 28 31 36 37 38 39 40 38 36 38 41 42 41 36 39 38
7 10 13 14 22 24 26 29 32 32 33 34 33 32 31 30 30 29 32 36 38 37 38 38 39 38 39 42 43 41 42 45
15 11 6 7 5 5 11 16 24 29 31 31 32 33 32 31 32 30 32 35 35 37 38 38 40 38 39 40 42 43 42 41
16 14 13 13 18 15 5 12 18 21 24 27 32 35 36 36 35 34 34 32 36 36 35 37 38 40 41 40 39 38 39 40
17 16 16 15 17 18 19 17 6 22 22 22 18 20 23 29 33 36 36 35 33 33 37 37 38 40 42 44 42 38 38 38
16 16 14 18 20 20 22 21 22 13 4 1 4 18 26 29 32 32 33 35 35 37 37 38 39 42 43 44 43 45 39 40
15 12 18 20 19 24 22 24 25 24 22 19 16 12 7 5 24 29 31 32 35 36 37 38 38 41 42 43 45 46 46 45

GFSFLT1_925_spd_081.txt.gz
Wind_Speed
20 24 26 29 28 25 20 17 16 18 19 18 22 26 35 36 31 34 38 41 43 40 39 42 44 42 41 41 37 26 29 28
15 22 26 28 26 24 21 18 17 19 19 19 18 19 26 31 36 39 41 37 39 37 38 42 43 43 42 41 38 29 27 27
11 20 22 25 28 26 22 19 19 19 17 17 11 19 19 26 29 38 38 38 35 34 34 40 41 38 41 42 38 27 24 28
14 18 23 23 22 22 22 22 21 19 21 16 18 19 18 16 31 31 36 39 34 32 31 33 35 33 33 40 37 33 22 30
13 18 19 24 23 21 20 24 21 20 21 21 20 14 13 12 21 29 32 36 35 34 32 32 36 35 37 39 35 35 33 28
18 19 23 24 23 22 21 27 24 20 21 21 20 16 14 19 22 26 29 32 34 33 33 33 34 35 38 39 35 37 37 34
10 13 22 21 21 22 26 27 22 23 23 20 20 19 18 20 22 23 28 31 31 29 27 28 33 34 39 37 35 35 35 35
15 19 19 22 24 24 26 28 22 24 23 21 20 18 18 21 21 24 26 27 27 32 31 30 33 34 29 32 34 33 32 30
19 20 18 23 25 25 26 27 24 24 25 22 21 17 18 19 22 22 24 24 26 30 32 32 34 33 35 31 33 24 25 30
18 17 15 23 26 27 28 27 25 25 25 23 22 24 22 21 22 24 24 26 26 31 36 30 29 32 33 36 32 32 30 33
13 14 16 22 24 25 26 26 24 26 25 26 25 24 26 24 24 28 29 29 28 30 33 33 27 29 32 36 36 39 42 42
15 13 15 20 22 24 25 25 24 25 25 25 24 23 23 24 25 25 27 28 28 26 30 31 31 31 32 34 35 37 41 41
10 12 13 20 21 22 24 26 26 25 25 24 25 26 24 25 25 26 26 28 30 32 32 34 34 34 35 36 36 35 40 39
10 10 8 7 11 12 13 13 16 17 21 24 25 24 25 25 26 25 25 28 30 31 33 35 36 38 37 38 39 40 39 41
14 11 10 11 13 12 12 14 17 18 21 22 22 23 25 27 26 26 27 28 29 31 34 36 37 37 38 39 41 42 39 38
15 14 12 12 16 11 9 14 18 21 21 19 22 26 27 28 28 28 28 31 32 32 32 34 37 39 39 37 36 35 36 37
16 17 15 14 18 17 17 16 5 18 21 21 22 23 24 28 29 31 31 31 33 33 33 34 35 36 35 38 38 33 34 36
16 15 15 19 19 17 18 19 22 23 19 13 7 10 20 22 26 27 27 28 31 33 34 34 34 38 39 41 43 44 38 38
15 13 18 20 19 20 19 21 22 22 21 17 14 14 9 3 3 19 24 28 31 31 30 30 32 33 32 38 43 45 44 44

GFSFLT1_925_spd_084.txt.gz
Wind_Speed
21 22 26 29 29 30 27 24 22 21 20 21 24 25 28 32 29 31 39 40 37 36 34 36 41 41 40 41 38 31 32 32
15 21 26 27 30 30 28 23 20 21 23 21 20 23 27 29 32 31 37 44 34 40 37 38 41 41 40 42 39 32 28 31
6 16 23 29 27 27 26 21 21 21 21 20 16 16 22 27 30 30 33 36 43 39 37 39 41 36 38 38 38 30 24 34
9 13 21 25 25 28 25 23 21 23 19 19 12 18 10 21 26 33 34 35 39 33 37 38 38 38 40 38 38 34 25 32
10 14 16 25 25 27 25 22 20 21 21 20 18 10 9 4 16 27 33 36 34 31 33 36 36 32 32 37 36 32 33 28
14 16 15 21 23 25 23 23 21 20 20 18 16 14 12 15 23 28 32 33 34 29 29 30 33 34 34 39 36 33 34 34
9 11 20 19 20 22 24 24 22 21 20 18 18 16 16 18 20 24 28 30 32 30 29 28 26 30 30 34 37 37 32 33
12 15 16 21 24 24 24 25 22 23 22 19 16 17 17 18 22 20 26 28 28 29 30 30 28 25 30 32 37 38 34 33
12 15 16 21 25 25 24 25 23 24 23 21 18 14 16 19 21 23 22 27 30 33 34 32 31 31 27 31 34 37 31 31
13 13 15 22 26 27 24 25 23 24 22 21 19 18 16 16 19 21 25 27 28 33 34 33 31 32 36 31 33 38 33 31
12 14 16 22 23 24 21 24 25 21 22 22 18 18 17 16 17 19 20 23 24 25 28 30 31 32 36 41 37 37 38 37
9 9 14 22 21 20 19 22 23 22 19 21 17 17 17 18 20 20 19 19 20 22 24 29 32 32 32 37 35 32 35 33
9 9 9 16 18 17 18 20 22 21 21 19 19 19 17 18 18 19 19 21 21 23 23 26 29 32 28 28 30 30 33 34
10 11 11 12 15 14 14 19 19 19 20 20 17 16 19 20 18 17 17 18 19 22 23 25 27 29 31 30 30 31 33 35
10 10 11 11 13 12 13 15 17 18 19 19 20 20 17 16 15 16 17 18 21 23 25 27 27 28 29 30 32 33 34 36
14 12 12 12 14 10 9 9 13 16 17 18 20 20 21 19 18 18 17 17 18 18 21 24 26 28 30 31 32 34 37 37
16 16 16 13 16 16 16 11 4 13 14 15 13 16 17 18 19 20 21 22 22 22 23 23 24 26 27 29 32 33 34 35
16 15 13 17 17 18 20 16 20 21 20 15 13 6 8 12 16 19 21 23 26 28 28 28 28 29 26 29 32 34 34 34
14 13 16 18 19 23 21 19 23 23 21 16 15 12 10 8 6 4 5 11 17 23 25 28 28 15 22 27 31 35 37 37

GFSFLT1_925_spd_087.txt.gz
Wind_Speed
19 17 17 18 22 27 32 32 30 25 21 21 22 25 27 30 30 29 31 33 32 36 35 39 41 39 31 29 28 22 25 23
19 15 12 16 21 26 29 29 29 26 24 22 24 23 26 28 29 30 30 33 34 34 37 38 36 35 35 33 29 28 21 21
15 10 12 19 22 24 26 27 28 25 21 22 17 20 24 26 29 32 33 35 34 37 39 39 37 30 33 37 33 25 19 25
15 11 15 18 22 27 27 27 24 21 19 20 17 16 13 21 26 25 37 36 39 39 41 37 34 32 36 38 34 29 19 25
15 13 15 21 21 22 24 24 23 19 18 19 18 15 15 14 19 21 34 39 39 40 42 39 35 34 32 36 34 32 25 26
16 13 16 20 21 24 23 21 19 18 21 21 18 14 12 19 14 27 33 32 32 38 38 36 35 34 32 35 34 31 27 26
9 11 18 21 22 22 23 23 20 19 22 20 18 14 12 13 16 23 25 30 30 33 33 33 32 32 36 36 35 32 32 28
9 14 14 22 24 25 24 23 22 20 21 20 18 15 13 13 18 21 27 27 27 28 30 29 28 28 31 31 32 35 34 35
7 12 16 21 24 24 25 25 23 20 20 20 18 16 14 14 18 20 23 28 28 31 29 29 27 23 20 19 27 35 37 33
12 14 15 22 26 25 24 24 22 22 21 20 18 16 15 14 15 19 22 27 30 33 34 31 29 32 35 33 26 33 36 35
9 12 15 20 22 22 22 23 22 22 21 21 19 16 14 13 14 17 20 22 30 34 34 34 34 34 38 37 30 28 30 36
2 6 14 18 19 20 20 22 22 23 23 20 20 17 16 14 14 13 17 22 26 28 30 32 33 35 37 37 34 26 27 31
5 6 10 15 17 19 19 21 22 22 20 18 19 18 18 17 14 15 16 16 17 22 23 27 29 32 32 33 36 34 27 26
4 6 7 9 13 17 19 20 21 19 18 18 17 18 17 18 17 17 17 16 15 16 17 18 20 26 28 30 33 33 37 38
14 5 7 10 13 14 15 17 19 19 17 16 15 17 15 16 16 17 18 19 17 17 17 17 18 19 21 26 29 29 31 32
16 14 11 9 11 12 11 12 14 15 14 14 14 13 13 12 12 13 14 16 18 19 17 17 18 18 19 21 25 29 30 31
14 15 15 13 17 15 16 13 10 11 9 6 7 8 9 10 10 10 10 11 11 12 15 16 16 21 23 24 26 28 29 30
14 14 13 16 17 17 18 20 23 22 19 15 14 10 9 5 8 9 11 12 14 14 14 15 15 16 19 24 26 27 23 26
12 11 17 19 17 20 20 22 24 21 22 18 15 13 13 11 10 9 8 5 5 5 3 5 13 5 11 20 25 27 31 24

GFSFLT1_925_spd_090.txt.gz
Wind_Speed
19 19 17 15 15 20 25 29 28 29 29 22 19 18 21 25 31 35 35 34 36 35 33 32 38 35 37 31 28 26 25 23
23 22 16 15 15 19 25 28 27 29 27 23 21 21 20 25 28 31 33 31 35 36 34 34 39 39 40 37 30 29 25 24
20 25 19 15 16 20 24 28 27 30 26 24 19 20 18 20 26 30 31 31 34 34 36 36 39 39 41 33 32 28 26 26
20 20 22 18 18 20 24 28 27 28 24 21 16 14 13 17 23 27 30 32 33 35 37 38 36 35 39 33 32 30 27 27
19 19 20 19 20 19 23 27 28 27 24 21 21 18 15 14 20 26 27 32 35 32 41 40 37 34 34 34 33 32 29 28
16 18 20 19 18 21 23 27 27 25 24 20 19 17 16 15 18 19 25 27 36 37 40 41 40 34 31 34 33 31 29 29
11 14 16 15 18 21 25 28 27 24 23 19 18 16 14 13 13 16 22 28 35 41 44 42 40 38 33 32 32 32 28 28
10 7 9 15 19 22 26 28 27 24 21 19 17 15 13 13 13 19 20 21 27 31 36 40 39 36 32 32 31 31 29 27
9 6 8 14 17 21 22 26 25 22 20 18 16 14 11 10 15 20 23 23 28 31 31 37 33 32 31 28 27 27 26 26
13 6 8 12 17 19 21 24 23 21 20 18 16 14 10 8 13 18 23 25 30 31 29 30 29 30 30 26 25 25 23 25
14 7 9 12 15 19 20 23 21 20 21 18 16 13 10 9 10 15 21 27 30 31 30 31 31 29 29 28 26 25 26 28
14 8 3 11 14 18 20 21 21 21 21 19 17 14 11 10 9 12 19 26 30 30 28 27 31 33 32 31 31 26 26 24
11 7 2 8 13 16 18 18 20 20 21 19 17 14 13 11 11 11 17 22 25 27 32 26 29 32 33 32 29 30 28 24
16 6 3 6 12 15 17 18 18 19 19 20 17 15 15 14 12 12 13 15 20 25 27 27 28 30 31 33 33 31 34 30
13 14 10 7 9 12 15 17 17 19 17 20 18 16 14 13 12 13 14 14 15 16 18 21 26 27 28 31 34 31 34 31
15 15 16 15 5 10 13 15 19 20 19 17 16 15 14 13 12 12 12 14 13 14 16 17 19 21 22 25 27 30 30 28
15 17 14 14 18 13 14 8 12 14 13 11 14 14 14 14 14 13 11 11 11 11 10 11 13 13 16 21 20 21 23 24
13 14 13 15 17 16 16 15 17 18 18 16 15 13 12 10 8 8 9 11 12 11 11 12 10 10 18 21 23 20 15 18
13 12 16 16 16 17 16 18 18 19 19 18 16 15 14 12 13 12 11 11 13 12 11 12 10 3 10 17 20 21 13 5

GFSFLT1_925_spd_093.txt.gz
Wind_Speed
19 21 25 27 26 23 23 27 26 28 26 24 23 23 22 24 28 27 26 29 29 26 28 27 30 29 30 30 32 30 26 23
22 23 24 24 22 20 22 26 27 28 26 26 25 24 22 23 24 26 28 29 32 32 30 25 27 33 33 34 32 31 27 23
17 22 25 26 23 21 23 26 28 29 26 26 24 21 20 21 21 25 27 30 31 32 32 28 31 33 36 36 32 28 28 22
16 17 22 26 23 23 24 26 28 28 28 25 22 17 13 17 20 22 26 28 29 33 32 33 37 34 36 38 36 31 26 25
15 17 17 25 25 23 23 24 27 27 30 28 26 18 15 17 18 19 24 27 29 31 34 37 35 36 36 41 36 34 29 27
13 14 16 25 27 23 21 23 27 25 31 27 24 23 20 16 19 18 20 25 31 34 35 38 36 35 36 38 36 34 32 30
10 12 18 22 23 21 20 22 26 26 28 27 23 20 16 16 16 16 19 24 31 29 38 38 37 36 34 40 40 37 29 28
8 9 9 15 16 17 18 22 25 26 27 26 21 18 18 15 15 14 13 21 23 29 35 39 37 36 38 36 35 32 29 28
11 8 5 7 11 15 16 23 25 25 24 21 18 15 14 14 12 12 13 21 25 31 37 38 38 39 38 37 34 30 27 27
16 13 3 8 14 13 16 20 24 23 21 19 17 15 13 11 9 12 16 18 22 26 32 37 39 40 43 36 27 26 25 25
20 16 2 5 16 15 13 17 20 20 19 17 16 15 12 9 10 15 17 18 22 25 25 26 31 35 41 39 29 26 22 20
16 16 15 4 16 14 15 21 19 18 17 16 15 15 13 11 10 13 19 22 26 25 26 27 28 30 32 31 28 26 24 22
15 17 14 13 11 11 13 17 19 16 15 16 16 15 15 12 10 13 20 25 28 29 30 28 28 28 27 26 26 28 28 27
16 16 14 9 6 7 10 8 14 15 14 15 16 15 15 12 12 13 20 23 26 28 28 29 28 29 30 29 29 28 27 27
14 14 15 16 14 9 10 8 12 14 16 15 15 15 16 14 13 15 16 19 23 25 26 25 26 28 28 29 29 28 27 27
14 14 14 16 19 22 7 11 11 13 11 13 14 13 13 12 12 11 12 16 17 18 19 22 23 25 26 28 29 31 31 25
13 15 15 14 19 20 21 15 8 14 13 10 13 11 11 10 11 12 10 9 8 9 14 16 19 17 20 24 24 24 26 22
13 13 13 17 18 18 18 17 15 19 17 14 15 15 17 15 11 13 11 12 10 8 5 12 13 9 14 21 24 15 17 18
13 12 16 18 17 18 18 15 19 17 17 16 14 14 15 14 15 16 16 18 17 15 12 9 8 4 7 13 15 10 4 3

GFSFLT1_925_spd_096.txt.gz
Wind_Speed
16 25 29 29 31 35 31 32 38 34 28 30 27 26 25 24 25 27 27 26 27 28 28 28 30 27 27 27 25 26 29 29
20 20 19 24 23 24 29 31 34 32 27 27 25 26 24 25 26 23 25 26 27 29 26 28 29 29 33 29 28 30 25 28
18 22 22 21 21 22 22 29 35 31 28 27 23 22 23 22 25 28 28 27 28 30 29 29 29 30 33 29 30 24 23 32
8 7 11 25 25 22 21 23 33 30 26 23 21 23 20 22 23 24 27 27 29 30 32 30 31 28 25 33 33 31 25 27
7 8 8 15 24 27 24 23 23 32 29 26 28 24 19 16 20 21 23 26 29 31 30 32 32 32 34 36 38 39 27 23
6 7 10 20 18 25 28 26 24 32 32 28 29 24 20 16 19 22 23 23 26 29 30 32 33 32 35 35 35 35 34 25
7 8 10 16 19 19 30 26 22 30 29 32 28 26 20 20 23 21 23 24 26 29 30 34 36 35 37 39 35 39 38 30
16 9 8 8 15 18 26 24 20 29 28 28 24 28 23 18 25 23 20 21 25 28 30 33 35 39 37 36 39 39 37 35
17 21 20 8 7 22 19 19 18 25 27 25 23 20 16 15 15 16 19 20 22 28 31 31 36 39 38 36 37 37 39 36
17 18 21 12 16 15 10 11 17 22 25 22 20 19 15 11 13 14 14 17 17 23 27 33 35 40 36 37 32 37 41 35
16 17 19 28 17 10 3 8 12 21 23 19 17 14 13 12 12 13 13 14 12 17 23 31 28 34 36 34 33 30 35 34
15 16 24 32 13 6 3 5 6 22 20 15 16 14 13 12 11 13 14 11 12 15 21 21 30 35 37 35 31 34 32 30
15 15 19 25 25 6 5 5 15 18 17 14 15 15 13 13 12 12 13 12 15 18 18 18 16 26 36 33 31 32 30 30
16 16 15 19 25 28 7 6 3 12 19 15 14 15 14 12 11 12 13 15 20 20 19 21 22 20 28 31 35 31 29 27
16 15 15 20 25 26 28 8 0 6 13 12 13 16 14 13 12 13 15 17 21 21 20 20 21 18 17 18 23 27 24 26
17 15 15 19 24 28 29 29 8 8 10 11 11 14 18 15 17 15 16 18 20 21 22 23 23 23 22 24 25 27 30 29
18 18 17 17 22 24 27 28 28 9 4 7 9 11 14 15 14 15 16 18 19 20 23 22 19 21 24 25 25 26 27 26
18 17 17 21 22 22 24 26 26 16 16 14 15 13 14 13 13 15 13 13 18 20 20 20 17 11 16 24 25 21 22 20
16 16 21 23 23 24 25 27 26 21 20 19 15 16 17 16 17 17 16 17 17 19 18 16 14 10 7 11 19 15 16 12

GFSFLT1_925_spd_099.txt.gz
Wind_Speed
21 28 35 35 39 44 33 43 44 42 40 37 36 32 27 28 28 26 30 32 32 30 31 31 32 33 31 30 28 31 25 27
11 13 27 34 40 40 31 40 40 38 36 34 32 34 30 27 30 33 28 28 30 31 31 32 33 34 31 30 26 25 21 29
9 17 20 21 31 33 29 44 44 41 38 34 27 29 29 30 24 30 34 32 30 30 29 31 32 32 30 29 28 20 18 27
9 12 19 24 25 24 28 39 42 37 33 29 21 24 20 25 31 28 32 33 30 30 29 31 32 31 31 31 33 28 17 27
7 7 2 5 16 27 30 40 40 38 38 32 33 28 21 24 23 29 33 30 30 31 32 32 33 34 33 32 36 34 26 27
11 15 10 13 13 14 29 43 41 39 39 37 34 25 23 23 24 26 31 31 29 30 31 32 31 34 33 37 33 33 36 30
15 16 26 27 31 15 30 36 35 41 39 37 35 30 26 23 26 28 28 28 28 30 31 33 35 34 38 38 34 36 36 34
17 18 17 25 30 19 30 31 33 37 37 35 31 30 30 29 31 28 26 26 26 29 30 33 35 34 36 38 37 36 38 36
17 17 17 23 28 6 26 25 27 31 32 32 29 30 31 29 31 31 29 26 24 24 33 33 35 35 38 39 38 38 39 39
19 18 21 29 27 25 22 15 15 26 29 27 26 27 27 24 27 28 27 25 21 21 27 33 32 36 38 40 37 37 38 40
19 18 22 30 32 31 26 24 16 14 26 26 23 25 22 19 20 21 18 15 15 20 24 30 31 35 37 37 31 35 35 36
17 17 23 25 28 30 31 24 21 6 25 22 22 19 18 16 15 12 11 13 14 17 20 25 28 33 35 35 28 32 35 36
17 17 24 26 29 31 29 31 18 9 18 24 19 17 13 11 8 7 9 11 13 13 15 18 21 24 32 32 32 32 34 31
18 18 18 24 27 28 28 29 31 7 14 17 18 17 14 13 13 8 10 12 13 11 15 15 17 22 31 31 35 32 34 31
17 17 17 24 27 28 29 30 30 26 10 14 15 14 13 13 11 10 13 14 13 14 13 12 12 12 24 27 30 34 29 34
17 17 16 23 26 27 27 27 29 28 6 10 13 14 13 13 12 12 14 15 14 15 14 12 11 12 15 24 28 33 33 31
18 18 16 21 25 25 24 25 29 28 25 9 6 10 13 11 13 12 15 14 14 15 15 14 14 12 13 15 14 18 23 20
17 17 17 22 24 25 23 22 28 30 30 26 13 15 14 15 17 17 16 15 14 15 15 15 12 10 16 18 18 17 17 18
15 17 21 25 26 27 23 23 29 32 30 29 25 16 16 15 19 19 19 19 20 20 17 14 11 5 7 16 21 18 20 16

GFSFLT1_925_spd_102.txt.gz
Wind_Speed
25 29 35 33 36 38 38 43 44 43 41 40 37 37 35 36 36 36 37 37 36 36 34 33 33 33 32 32 31 31 28 29
21 27 27 31 35 33 35 38 41 37 32 33 32 35 38 32 35 36 35 36 36 36 34 33 33 33 33 32 30 28 25 27
10 15 24 23 29 37 32 38 41 41 38 39 30 34 33 36 34 28 34 35 34 34 33 33 35 33 30 31 31 22 23 27
12 9 14 20 23 29 31 39 41 44 39 31 24 28 21 25 31 35 34 33 31 33 34 33 33 34 32 34 35 28 21 24
2 6 6 14 15 13 28 36 40 40 36 34 35 32 26 27 30 32 37 36 34 32 31 33 32 33 32 33 35 33 27 22
7 7 7 13 18 16 15 30 30 38 41 37 35 28 28 24 27 29 34 34 35 36 36 34 33 34 34 34 34 34 32 27
12 12 19 24 26 22 12 27 31 33 39 36 37 34 29 26 27 27 28 31 33 35 35 35 37 37 35 35 35 36 35 31
17 20 18 24 30 32 7 25 27 31 34 35 38 36 36 34 30 28 27 25 28 31 34 34 34 34 35 35 35 35 36 33
17 18 16 24 29 33 30 7 26 31 31 31 31 32 32 32 35 32 29 28 32 32 33 33 35 35 35 33 33 34 35 35
22 19 22 26 27 28 28 23 6 19 24 24 27 32 31 31 31 30 31 32 29 27 29 31 32 33 35 35 34 33 35 37
17 17 22 26 27 27 28 30 26 6 21 29 30 31 28 27 25 27 26 27 25 23 24 28 32 34 35 35 34 34 35 39
15 17 26 27 29 31 31 32 31 28 9 20 23 25 24 23 23 20 20 19 18 20 22 24 27 29 33 33 33 36 39 35
16 17 24 28 30 33 31 32 32 31 18 13 23 26 25 22 20 17 14 13 13 15 17 20 22 25 28 32 31 30 34 35
17 18 17 23 26 30 30 32 33 33 22 8 19 20 22 17 16 10 5 6 10 13 14 13 16 19 23 29 34 31 29 31
19 18 17 24 27 29 30 30 30 32 25 1 14 14 15 15 10 9 5 10 11 10 10 11 13 11 16 24 29 31 32 30
18 18 17 24 26 28 29 29 30 30 26 22 16 8 11 13 12 10 10 11 10 8 10 9 6 7 10 12 27 23 28 29
19 19 17 22 27 28 28 28 27 25 28 28 23 17 5 8 8 8 8 9 8 8 8 9 6 3 1 5 10 21 28 29
18 17 18 24 27 27 27 27 26 27 30 31 30 24 15 9 13 16 13 11 10 8 6 4 2 4 7 5 6 6 9 17
15 18 23 25 28 29 27 29 29 27 28 33 33 28 22 16 12 18 18 16 15 13 11 9 8 7 4 10 11 8 9 9

GFSFLT1_925_spd_105.txt.gz
Wind_Speed
20 26 32 33 36 40 43 43 45 46 42 38 35 35 36 36 36 35 37 38 37 36 36 35 32 27 30 32 32 32 30 31
22 28 35 31 29 33 40 38 41 39 34 32 28 29 36 37 37 37 37 37 38 37 36 34 34 31 30 31 28 29 26 27
14 22 30 27 27 22 33 37 41 40 36 37 29 35 33 41 40 40 40 38 39 39 38 35 34 30 30 32 30 21 22 27
13 13 14 16 18 18 19 32 35 40 38 30 23 24 18 21 29 34 39 40 40 40 39 38 35 34 33 33 32 27 20 23
16 12 7 12 15 14 11 27 37 39 38 34 33 33 25 27 35 37 35 39 42 38 39 37 35 34 32 34 33 31 24 19
17 15 16 17 20 19 15 18 34 32 37 36 35 28 29 24 27 32 34 37 39 38 39 36 35 35 34 34 32 32 32 24
17 21 19 18 21 23 21 9 27 32 36 35 34 34 29 26 26 27 29 30 35 38 38 36 36 35 34 35 34 33 32 30
16 16 15 20 23 28 25 16 13 24 29 33 32 29 31 34 33 30 26 26 27 35 38 37 37 36 34 33 33 33 34 32
16 17 16 20 24 27 27 26 20 15 22 24 27 29 31 27 28 26 27 29 29 28 34 35 36 34 34 34 32 34 34 33
19 16 19 24 25 26 26 27 25 18 19 23 24 28 30 31 30 26 26 29 31 32 31 31 31 30 30 31 32 30 29 33
17 16 20 25 27 27 28 27 25 23 6 18 22 27 29 27 26 27 28 28 29 29 28 26 25 26 28 30 30 31 30 32
15 14 24 27 27 28 27 28 25 26 19 2 18 24 22 22 22 24 25 26 25 23 24 22 22 25 27 30 30 30 32 33
16 18 24 23 26 29 29 29 29 28 27 15 9 17 20 21 22 22 20 19 18 17 17 16 18 22 24 29 30 33 35 35
20 19 18 24 27 28 29 31 29 29 31 26 4 14 19 21 21 20 17 14 12 11 13 16 17 18 20 26 28 28 35 35
18 18 17 25 28 28 29 30 31 32 30 27 21 8 15 18 17 17 13 9 10 10 10 10 9 11 14 19 23 29 31 34
17 17 17 25 27 28 30 31 32 31 29 28 26 21 5 9 10 11 9 7 5 6 6 6 6 8 10 15 18 22 28 24
18 18 18 23 28 28 28 30 30 30 28 26 28 26 20 16 8 6 7 10 9 8 7 7 5 4 7 8 8 11 16 26
17 18 19 24 27 28 28 29 28 27 26 34 31 33 30 26 16 10 8 7 9 8 6 2 0 5 8 10 5 5 3 1
16 19 23 26 29 28 26 28 30 30 32 32 34 31 33 32 30 27 19 11 12 10 8 7 6 8 7 5 4 2 8 10

GFSFLT1_925_spd_108.txt.gz
Wind_Speed
24 27 29 29 33 36 33 35 38 41 40 38 37 37 35 35 34 33 35 35 34 34 35 32 31 29 30 32 33 33 30 30
21 25 30 30 27 29 31 33 34 39 33 33 32 32 35 33 38 40 37 37 36 35 34 35 32 32 29 32 30 30 25 26
10 18 21 21 27 25 26 29 33 38 34 34 34 36 33 38 33 31 39 39 39 36 35 36 37 33 31 29 31 20 21 27
7 11 17 21 22 21 18 23 27 35 36 30 27 25 20 23 26 30 40 39 39 37 38 38 38 35 34 34 33 27 20 23
6 10 15 20 22 27 24 21 23 34 39 33 34 32 26 29 32 37 36 41 42 39 38 39 37 36 34 36 35 33 25 19
10 11 17 20 23 25 26 23 26 31 34 36 37 33 31 28 28 29 33 37 41 41 40 39 38 38 36 36 33 34 32 24
15 19 20 22 25 26 26 25 23 25 34 38 38 37 30 25 28 29 30 32 34 38 39 40 40 37 35 35 35 36 33 30
16 18 17 23 26 27 25 25 21 12 27 30 31 31 29 34 30 27 28 29 29 36 36 36 36 37 36 34 35 34 34 32
16 17 19 22 26 27 27 25 22 18 17 25 26 27 26 25 26 26 27 26 26 27 35 33 34 35 35 35 34 34 33 34
18 18 20 24 25 25 27 27 24 21 14 15 23 25 28 27 27 27 27 27 27 28 28 26 31 32 32 32 31 31 31 34
17 17 23 23 22 27 26 27 25 23 18 9 19 23 25 28 28 30 29 29 28 25 25 26 28 28 29 29 28 29 29 29
15 16 24 22 25 29 30 30 30 29 27 14 9 20 24 25 26 28 26 24 24 20 23 27 24 22 22 24 26 26 28 30
14 14 20 26 25 26 27 29 30 30 27 23 4 14 18 21 23 23 22 22 17 17 21 19 19 18 18 19 22 26 29 28
18 17 18 26 30 31 32 33 32 30 28 25 25 18 10 16 18 17 17 15 15 15 14 15 14 14 15 16 18 21 22 26
17 18 18 27 30 30 31 31 32 32 30 27 29 27 16 10 13 16 16 15 13 12 11 10 10 10 11 13 16 19 22 25
19 19 18 28 30 31 32 32 33 31 30 35 32 31 25 22 17 14 10 8 8 7 7 7 7 8 9 11 11 11 16 24
18 20 21 25 29 30 31 32 32 32 32 31 30 34 30 28 22 22 17 16 14 10 9 8 5 5 7 8 7 8 11 14
18 18 21 25 29 29 29 30 31 32 30 33 34 38 32 30 30 28 26 22 17 17 14 10 8 9 11 7 6 6 6 8
17 20 24 28 29 32 29 31 32 32 33 34 35 35 28 32 34 35 33 30 29 26 24 22 17 19 15 9 3 0 4 7

GFSFLT1_925_spd_111.txt.gz
Wind_Speed
23 19 18 22 26 28 30 32 30 25 29 32 28 29 31 31 37 34 33 35 35 33 33 35 32 33 33 34 28 24 20 19
19 11 15 17 17 20 21 23 30 24 24 27 28 30 31 32 36 38 33 33 36 36 31 35 34 34 35 34 30 26 19 22
13 18 17 16 18 16 17 16 20 22 27 28 30 32 33 35 35 33 34 36 38 41 36 38 38 33 34 34 32 19 21 26
18 20 22 23 21 21 22 21 20 19 24 27 26 26 27 28 29 33 42 41 38 40 38 35 39 35 34 35 34 29 21 23
19 20 25 27 27 24 26 25 25 23 19 27 31 31 29 33 35 35 37 42 38 40 42 38 36 35 32 36 36 33 24 19
19 19 26 26 26 29 26 27 27 25 22 26 32 34 32 32 32 32 34 37 40 40 45 42 36 35 37 35 34 34 32 24
18 25 26 26 27 29 29 27 26 23 20 27 36 36 33 30 32 30 30 31 35 38 36 41 41 38 36 39 37 36 33 28
17 20 23 28 29 30 29 27 26 22 21 23 36 36 33 32 31 30 29 29 31 37 43 41 39 40 37 36 36 35 35 33
17 18 24 26 28 29 30 27 25 22 19 12 28 31 31 30 29 26 27 28 30 29 37 34 37 36 35 34 32 36 35 35
19 21 25 28 29 30 30 27 25 22 21 14 14 25 28 26 24 25 26 27 29 32 33 36 33 35 33 31 31 33 32 33
18 18 25 28 28 29 26 25 24 23 23 19 9 22 26 25 26 25 26 25 30 30 29 31 31 31 30 29 27 27 29 29
16 18 26 26 26 27 24 24 25 28 30 27 18 10 20 23 24 22 22 25 28 28 26 25 26 26 27 26 25 25 26 25
15 18 24 25 26 26 25 33 32 30 29 27 24 12 13 16 18 21 23 22 22 22 23 23 23 25 23 20 22 21 22 21
15 15 17 22 25 26 32 31 31 32 30 30 29 27 19 10 14 15 16 17 19 21 21 21 19 17 16 13 14 16 17 18
18 18 18 25 29 34 32 33 35 34 30 32 31 30 27 25 18 16 13 12 15 15 15 14 12 9 7 6 8 11 14 18
19 19 19 29 32 32 33 33 37 36 35 35 32 32 31 30 28 26 25 23 21 20 19 18 15 10 5 3 6 8 11 14
19 20 23 28 33 35 35 35 34 35 30 32 33 33 37 37 30 28 28 27 25 24 23 21 19 14 12 2 6 8 9 13
19 19 24 28 31 32 31 32 34 35 37 36 38 36 30 41 32 34 35 30 31 32 25 22 23 25 21 8 2 3 6 6
16 23 27 30 33 33 32 34 34 35 35 36 39 34 32 40 39 39 37 33 37 32 33 29 29 34 25 17 7 5 7 10

GFSFLT1_925_spd_114.txt.gz
Wind_Speed
16 18 16 18 20 20 22 19 17 17 24 25 26 26 27 29 29 29 31 33 33 32 28 25 29 29 27 27 24 24 22 19
16 17 16 19 19 21 19 21 16 16 20 25 26 28 29 32 32 32 32 32 33 33 30 28 33 35 33 29 25 24 22 19
15 18 19 19 20 21 21 21 20 18 18 23 26 27 30 32 33 33 32 32 32 35 34 33 35 31 31 31 32 22 19 25
17 19 20 21 22 22 23 24 23 23 21 21 25 28 28 29 30 30 33 35 36 39 36 33 34 33 33 33 33 30 23 25
16 19 23 22 23 23 24 25 26 24 23 23 25 29 30 31 30 32 35 37 36 36 36 37 36 35 34 36 33 33 26 21
18 18 24 27 24 24 24 25 27 25 24 25 27 30 31 30 30 31 34 34 38 37 37 37 37 37 37 33 33 33 33 25
18 23 24 24 25 26 27 27 26 27 24 25 29 32 35 31 31 30 31 33 35 39 39 38 39 37 36 38 34 34 32 28
19 20 23 25 27 28 28 28 29 27 27 26 27 33 39 37 33 31 28 29 31 35 38 39 38 38 35 34 33 33 35 32
18 20 25 26 28 27 27 28 29 30 30 28 27 29 34 38 34 31 30 27 30 33 39 38 38 36 35 36 35 34 33 33
20 22 26 27 29 29 29 29 30 31 32 30 25 23 29 34 33 29 26 27 28 29 34 34 35 35 36 35 34 34 33 35
19 20 27 28 29 30 29 29 30 31 31 26 22 20 23 29 25 24 25 24 27 29 31 35 34 35 35 35 33 31 31 30
16 19 28 29 30 30 30 29 29 29 26 23 18 13 17 22 24 23 24 23 24 25 29 29 31 32 33 32 29 29 29 24
17 22 26 28 30 32 30 31 27 26 25 20 20 19 11 14 17 21 20 20 20 22 23 28 28 28 27 29 28 25 24 22
17 20 21 26 28 28 28 28 28 28 27 26 28 31 29 26 9 12 15 17 17 18 20 18 16 15 18 20 20 21 20 21
16 16 19 24 25 27 29 32 34 31 34 35 34 35 31 29 28 24 22 22 21 22 22 21 20 17 16 14 13 12 11 11
18 19 16 25 27 30 32 34 36 39 32 38 35 33 35 34 35 31 30 32 30 28 28 25 20 17 11 7 8 6 4 4
19 19 24 26 32 32 33 35 37 37 39 38 38 35 39 38 41 34 36 35 34 32 30 26 23 20 13 7 6 8 4 1
17 18 24 29 30 30 31 32 34 37 38 38 36 38 40 35 39 41 41 35 35 37 36 34 33 26 18 13 10 11 8 8
17 23 26 29 31 33 32 34 36 37 36 38 39 40 40 39 43 38 40 30 37 34 35 33 36 34 25 19 18 16 15 15

GFSFLT1_925_spd_117.txt.gz
Wind_Speed
17 17 18 19 18 18 18 16 15 15 16 20 24 25 27 27 28 29 31 34 34 34 28 27 32 26 23 26 25 24 24 20
14 16 17 18 18 20 20 18 16 16 16 17 23 26 28 28 32 30 31 33 33 34 33 32 33 33 31 30 27 26 24 19
13 16 18 19 20 21 21 21 19 17 17 19 20 24 28 30 30 33 34 33 34 36 36 32 33 31 32 32 31 26 24 24
14 17 20 20 21 21 22 23 22 20 18 21 23 26 29 26 32 32 34 36 35 38 38 36 33 31 32 32 32 29 24 23
16 18 23 23 24 22 21 23 24 22 20 20 22 25 26 27 28 31 33 36 38 37 38 38 33 33 32 37 36 34 28 23
17 19 26 28 26 25 25 24 24 23 22 22 23 25 27 30 31 33 35 32 38 37 38 36 35 33 35 34 34 35 33 28
18 24 27 28 28 27 28 27 25 23 22 22 23 26 28 29 30 29 32 34 34 37 38 37 35 34 33 34 35 35 33 31
19 21 26 29 31 31 29 27 28 26 26 24 24 26 28 31 33 34 28 30 33 36 38 37 37 37 36 33 34 35 35 32
19 21 25 27 29 30 30 30 29 27 26 26 26 27 27 30 33 35 36 32 33 32 35 37 38 39 36 34 33 33 34 34
18 22 25 28 28 30 29 29 28 27 27 27 28 29 29 31 35 35 36 40 33 30 31 36 37 35 37 36 34 35 35 35
17 21 26 28 30 29 28 27 26 28 27 26 27 30 30 33 37 36 34 37 27 27 30 34 35 36 35 34 32 31 32 33
13 18 25 26 27 29 30 29 29 29 27 29 30 25 25 29 36 34 32 34 28 26 29 32 33 34 33 33 31 29 32 30
14 20 24 25 29 30 31 32 33 31 29 32 24 20 17 16 10 25 26 26 26 25 28 28 29 29 28 29 27 26 29 27
19 20 22 26 29 31 33 34 35 35 33 28 22 21 26 35 33 30 17 6 9 9 11 14 17 21 25 26 26 26 25 27
17 18 21 27 28 29 31 34 36 35 28 29 26 34 38 38 38 39 36 31 29 25 24 23 20 18 18 18 21 22 20 19
17 17 19 27 30 30 30 32 35 34 33 36 36 38 40 41 41 40 39 40 36 32 29 29 27 26 19 14 16 16 16 13
17 18 24 27 29 29 29 33 34 34 38 39 40 39 42 40 42 41 43 42 39 39 38 35 35 33 23 18 15 14 14 11
17 19 24 28 28 30 30 31 34 36 37 39 40 39 44 42 40 40 43 41 37 40 38 36 41 39 31 26 20 18 20 17
15 21 24 26 28 30 29 32 35 37 38 39 41 44 40 39 38 38 40 37 34 41 39 39 41 44 36 31 29 24 24 20

GFSFLT1_925_spd_123.txt.gz
Wind_Speed
21 28 30 32 32 31 31 31 32 34 32 31 32 30 27 23 24 32 34 35 32 39 33 33 34 33 30 39 40 38 37 34
23 27 31 32 33 33 32 32 32 32 30 30 32 32 35 37 35 27 31 34 35 44 36 35 39 44 36 35 36 39 32 33
20 25 29 31 30 32 30 30 30 29 28 28 27 29 28 31 33 33 31 30 37 36 31 41 42 44 38 33 37 29 25 36
15 22 26 27 28 28 29 31 30 29 28 31 29 29 31 29 28 29 29 27 27 38 42 50 38 42 37 41 39 35 30 31
15 20 22 24 25 27 29 29 30 30 27 27 28 27 26 27 31 32 34 32 28 25 42 45 48 46 41 43 38 38 34 30
14 19 23 25 28 30 28 29 27 28 30 26 27 29 28 29 34 35 35 35 31 30 25 42 44 48 44 41 41 39 39 34
20 27 28 29 30 29 30 28 28 29 30 28 28 29 29 29 29 34 34 33 32 33 32 27 41 42 43 43 47 43 41 32
14 17 23 24 26 28 27 27 29 29 28 30 29 28 28 30 30 29 33 34 32 28 27 31 28 41 43 42 41 37 28 28
12 17 19 22 25 27 28 28 29 30 30 30 29 28 27 27 29 30 34 35 35 32 34 32 32 33 38 40 40 35 35 49
12 18 21 24 27 30 30 30 30 30 30 29 29 28 26 26 29 30 33 35 36 36 32 32 35 34 37 39 37 36 34 42
11 17 23 27 29 31 28 30 30 30 30 28 25 27 26 25 27 29 31 35 35 37 37 33 35 36 36 37 36 36 33 34
11 19 24 26 28 30 29 30 31 34 33 30 25 24 20 16 14 15 18 24 40 40 33 30 32 34 36 34 32 26 28 36
10 17 21 26 30 31 30 33 34 34 32 30 27 25 24 20 19 17 18 20 12 9 17 18 24 27 28 32 32 33 43 41
11 17 23 26 29 30 28 31 32 34 31 30 30 30 30 28 27 27 26 26 26 24 23 22 18 11 9 12 27 27 27 36
12 14 21 26 27 28 27 31 33 33 33 31 32 35 32 32 32 31 30 34 36 35 36 35 35 30 25 12 10 26 32 28
12 13 19 24 25 27 28 32 35 35 33 35 36 34 35 33 34 33 35 41 38 40 44 43 40 48 45 31 31 23 23 28
11 15 19 21 24 26 28 31 32 33 34 36 36 37 37 37 38 33 40 42 40 42 46 45 43 49 49 44 44 40 37 32
11 14 17 20 23 26 27 28 28 31 31 34 37 35 36 35 34 36 41 45 39 48 44 47 58 52 45 47 40 52 39 42
11 13 17 20 22 25 24 26 30 31 33 33 35 34 35 35 36 37 34 35 38 38 38 38 48 46 48 50 44 42 38 45

GFSFLT1_925_spd_126.txt.gz
Wind_Speed
21 25 25 27 29 29 29 28 29 30 28 29 30 27 28 30 31 26 25 26 25 39 42 34 36 35 37 39 34 35 35 34
21 25 27 31 33 34 33 34 32 32 30 33 30 29 33 34 34 33 28 26 27 26 23 42 33 35 36 39 32 31 30 30
21 25 29 30 29 31 31 33 34 33 25 27 23 29 23 31 35 32 28 29 28 27 22 21 50 36 35 39 33 26 28 30
15 23 25 27 29 31 29 29 31 28 28 30 29 31 28 22 26 31 28 28 33 32 30 24 26 43 46 44 40 34 24 30
13 19 22 23 25 28 28 28 26 25 27 24 23 23 26 28 28 31 34 30 31 34 32 29 23 25 42 42 42 37 34 28
12 18 22 23 25 25 25 24 24 24 25 25 24 24 25 30 30 29 30 31 29 33 32 30 30 24 25 38 34 31 38 36
13 18 21 22 26 28 29 29 29 28 28 27 25 26 28 29 29 30 29 28 28 24 28 28 23 27 29 27 37 36 38 42
10 15 20 23 26 28 29 30 30 30 29 28 28 26 27 29 29 28 28 29 27 25 22 25 26 26 26 27 29 40 40 37
11 18 21 25 27 29 29 29 29 30 29 29 27 27 25 26 26 27 28 27 27 28 29 29 32 34 34 32 25 29 38 37
12 18 20 23 24 28 26 28 28 29 29 29 28 26 24 25 29 29 28 28 28 29 28 29 27 27 29 28 25 26 29 33
10 16 19 23 24 28 25 28 29 29 31 30 29 27 25 23 21 22 21 22 23 29 32 31 30 28 28 27 28 27 26 28
10 16 19 22 24 29 27 30 32 33 35 34 31 29 27 24 22 19 18 18 19 23 25 30 31 29 26 26 26 27 26 26
8 13 17 21 24 29 30 34 36 36 34 32 31 30 29 28 27 26 25 23 23 22 17 14 8 8 14 18 21 22 25 27
8 12 16 21 25 29 32 33 33 35 35 34 33 30 31 31 30 30 30 30 32 33 31 29 22 14 11 4 5 10 11 9
7 10 16 20 23 26 28 31 33 35 34 35 34 35 30 35 32 34 36 36 37 37 35 31 31 30 27 20 20 24 20 14
9 9 14 19 23 25 26 28 30 32 31 35 36 35 33 32 37 38 40 40 38 37 37 38 37 42 39 33 36 34 33 31
9 12 15 18 20 23 23 26 28 28 29 30 33 35 36 36 33 40 40 37 41 43 43 43 42 42 43 45 39 40 43 36
7 9 12 14 17 18 21 22 24 27 28 29 33 34 35 34 35 34 36 39 40 40 44 44 45 43 46 42 41 42 40 39
6 8 12 14 16 19 19 22 24 27 28 29 32 33 33 32 33 37 35 36 36 38 40 42 43 47 45 41 40 42 40 38